Time,TemperatureF,DewpointF,PressureIn,WindDirection,WindDirectionDegrees,WindSpeedMPH,WindSpeedGustMPH,Humidity,HourlyPrecipIn,Conditions,Clouds,dailyrainin,SoftwareType,DateUTC
2013-04-27 00:01:00,47.7,47.7,31.01,East,80,5.8,5.8,100,0.00,,,0.00,VWS V13.01,2013-04-27 05:01:00,
2013-04-27 00:02:00,47.7,47.7,31.01,ENE,77,6.3,6.3,100,0.00,,,0.00,VWS V13.01,2013-04-27 05:02:00,
2013-04-27 00:06:00,47.7,47.7,31.01,ENE,63,4.9,4.9,100,0.00,,,0.00,VWS V13.01,2013-04-27 05:06:00,
2013-04-27 00:07:00,47.7,47.7,31.01,NE,46,4.0,4.0,100,0.00,,,0.00,VWS V13.01,2013-04-27 05:07:00,
2013-04-27 00:11:00,47.7,47.7,31.01,ENE,65,5.4,5.4,100,0.00,,,0.00,VWS V13.01,2013-04-27 05:11:00,
2013-04-27 00:12:00,47.7,47.7,31.01,ENE,78,6.7,6.7,100,0.00,,,0.00,VWS V13.01,2013-04-27 05:12:00,
2013-04-27 00:16:00,47.7,47.7,31.01,ENE,77,5.8,5.8,100,0.00,,,0.00,VWS V13.01,2013-04-27 05:16:00,
2013-04-27 00:17:00,47.7,47.7,31.01,ENE,72,6.3,6.3,100,0.00,,,0.00,VWS V13.01,2013-04-27 05:17:00,
2013-04-27 00:21:00,47.7,47.7,31.01,ENE,64,3.6,3.6,100,0.00,,,0.00,VWS V13.01,2013-04-27 05:21:00,
2013-04-27 00:22:00,47.7,47.7,31.01,ENE,61,4.9,4.9,100,0.00,,,0.00,VWS V13.01,2013-04-27 05:22:00,
2013-04-27 00:26:00,47.7,47.7,31.01,East,81,3.1,3.1,100,0.00,,,0.00,VWS V13.01,2013-04-27 05:26:00,
2013-04-27 00:27:00,47.7,47.7,31.01,East,81,4.0,4.0,100,0.00,,,0.00,VWS V13.01,2013-04-27 05:27:00,
2013-04-27 00:31:00,47.7,47.7,31.01,ENE,69,2.7,2.7,100,0.00,,,0.00,VWS V13.01,2013-04-27 05:31:00,
2013-04-27 00:32:00,47.7,47.7,31.01,ENE,69,2.7,2.7,100,0.00,,,0.00,VWS V13.01,2013-04-27 05:32:00,
2013-04-27 00:36:00,47.7,47.7,31.01,ENE,72,3.6,3.6,100,0.00,,,0.00,VWS V13.01,2013-04-27 05:36:00,
2013-04-27 00:37:00,47.7,47.7,31.01,ENE,72,3.6,3.6,100,0.00,,,0.00,VWS V13.01,2013-04-27 05:37:00,
2013-04-27 00:38:00,47.7,47.7,31.01,ENE,71,4.0,4.0,100,0.00,,,0.00,VWS V13.01,2013-04-27 05:38:00,
2013-04-27 00:41:00,47.7,47.7,31.01,ENE,69,4.0,4.0,100,0.00,,,0.00,VWS V13.01,2013-04-27 05:41:00,
2013-04-27 00:42:00,47.7,47.7,31.01,East,81,5.4,5.4,100,0.00,,,0.00,VWS V13.01,2013-04-27 05:42:00,
2013-04-27 00:43:00,47.7,47.7,31.01,ENE,76,2.7,2.7,100,0.00,,,0.00,VWS V13.01,2013-04-27 05:43:00,
2013-04-27 00:46:00,47.7,47.7,31.01,ENE,66,3.6,3.6,100,0.00,,,0.00,VWS V13.01,2013-04-27 05:46:00,
2013-04-27 00:47:00,47.7,47.7,31.01,ENE,66,4.0,4.0,100,0.00,,,0.00,VWS V13.01,2013-04-27 05:47:00,
2013-04-27 00:48:00,47.7,47.7,31.01,ENE,65,3.6,3.6,100,0.00,,,0.00,VWS V13.01,2013-04-27 05:48:00,
2013-04-27 00:51:00,47.5,47.5,31.01,East,84,4.9,4.9,100,0.00,,,0.00,VWS V13.01,2013-04-27 05:51:00,
2013-04-27 00:52:00,47.5,47.5,31.01,ENE,66,3.1,3.1,100,0.00,,,0.00,VWS V13.01,2013-04-27 05:52:00,
2013-04-27 00:53:00,47.5,47.5,31.01,ENE,66,2.2,2.2,100,0.00,,,0.00,VWS V13.01,2013-04-27 05:53:00,
2013-04-27 00:57:00,47.5,47.5,31.01,ENE,66,2.7,2.7,100,0.00,,,0.00,VWS V13.01,2013-04-27 05:57:00,
2013-04-27 00:58:00,47.5,47.5,31.01,ENE,66,0.0,0.0,100,0.00,,,0.00,VWS V13.01,2013-04-27 05:58:00,
2013-04-27 01:02:00,47.7,47.7,31.01,ENE,57,3.1,3.1,100,0.00,,,0.00,VWS V13.01,2013-04-27 06:02:00,
2013-04-27 01:03:00,47.5,47.5,31.01,East,80,5.4,5.4,100,0.00,,,0.00,VWS V13.01,2013-04-27 06:03:00,
2013-04-27 01:07:00,47.5,47.5,31.01,NE,46,5.8,5.8,100,0.00,,,0.00,VWS V13.01,2013-04-27 06:07:00,
2013-04-27 01:08:00,47.5,47.5,31.01,ENE,77,5.4,5.4,100,0.00,,,0.00,VWS V13.01,2013-04-27 06:08:00,
2013-04-27 01:12:00,47.5,47.5,31.01,East,82,3.6,3.6,100,0.00,,,0.00,VWS V13.01,2013-04-27 06:12:00,
2013-04-27 01:13:00,47.5,47.5,31.01,ENE,76,3.1,3.1,100,0.00,,,0.00,VWS V13.01,2013-04-27 06:13:00,
2013-04-27 01:17:00,47.5,47.5,31.01,ENE,65,5.4,5.4,100,0.00,,,0.00,VWS V13.01,2013-04-27 06:17:00,
2013-04-27 01:18:00,47.5,47.5,31.01,East,79,3.1,3.1,100,0.00,,,0.00,VWS V13.01,2013-04-27 06:18:00,
2013-04-27 01:22:00,47.5,47.5,31.01,ENE,70,5.4,5.4,100,0.00,,,0.00,VWS V13.01,2013-04-27 06:22:00,
2013-04-27 01:23:00,47.5,47.5,31.01,ENE,69,3.6,3.6,100,0.00,,,0.00,VWS V13.01,2013-04-27 06:23:00,
2013-04-27 01:27:00,47.5,47.5,31.01,ENE,65,5.8,5.8,100,0.00,,,0.00,VWS V13.01,2013-04-27 06:27:00,
2013-04-27 01:28:00,47.5,47.5,31.01,ENE,72,4.0,4.0,100,0.00,,,0.00,VWS V13.01,2013-04-27 06:28:00,
2013-04-27 01:32:00,47.5,47.5,31.01,ENE,63,4.0,4.0,100,0.00,,,0.00,VWS V13.01,2013-04-27 06:32:00,
2013-04-27 01:33:00,47.5,47.5,31.01,ENE,63,4.0,4.0,100,0.00,,,0.00,VWS V13.01,2013-04-27 06:33:00,
2013-04-27 01:34:00,47.5,47.5,31.01,ENE,62,8.1,8.1,100,0.00,,,0.00,VWS V13.01,2013-04-27 06:34:00,
2013-04-27 01:37:00,47.5,47.5,31.01,ENE,61,4.0,4.0,100,0.00,,,0.00,VWS V13.01,2013-04-27 06:37:00,
2013-04-27 01:38:00,47.5,47.5,31.01,ENE,76,3.6,3.6,100,0.00,,,0.00,VWS V13.01,2013-04-27 06:38:00,
2013-04-27 01:39:00,47.5,47.5,31.01,ENE,76,3.6,3.6,100,0.00,,,0.00,VWS V13.01,2013-04-27 06:39:00,
2013-04-27 01:42:00,47.5,47.5,31.01,NE,48,3.1,3.1,100,0.00,,,0.00,VWS V13.01,2013-04-27 06:42:00,
2013-04-27 01:43:00,47.3,47.3,31.01,NE,47,4.0,4.0,100,0.00,,,0.00,VWS V13.01,2013-04-27 06:43:00,
2013-04-27 01:44:00,47.3,47.3,31.01,NE,54,3.6,3.6,100,0.00,,,0.00,VWS V13.01,2013-04-27 06:44:00,
2013-04-27 01:47:00,47.3,47.3,31.01,NE,49,5.8,5.8,100,0.00,,,0.00,VWS V13.01,2013-04-27 06:47:00,
2013-04-27 01:48:00,47.3,47.3,31.01,ENE,66,4.9,4.9,100,0.00,,,0.00,VWS V13.01,2013-04-27 06:48:00,
2013-04-27 01:49:00,47.3,47.3,31.01,ENE,66,4.9,4.9,100,0.00,,,0.00,VWS V13.01,2013-04-27 06:49:00,
2013-04-27 01:52:00,47.3,47.3,31.01,ENE,61,3.6,3.6,100,0.00,,,0.00,VWS V13.01,2013-04-27 06:52:00,
2013-04-27 01:53:00,47.3,47.3,31.01,ENE,61,3.6,3.6,100,0.00,,,0.00,VWS V13.01,2013-04-27 06:53:00,
2013-04-27 01:54:00,47.3,47.3,31.01,ENE,74,3.6,3.6,100,0.00,,,0.00,VWS V13.01,2013-04-27 06:54:00,
2013-04-27 01:57:00,47.3,47.3,31.01,ENE,62,4.0,4.0,100,0.00,,,0.00,VWS V13.01,2013-04-27 06:57:00,
2013-04-27 01:58:00,47.3,47.3,31.01,NE,55,5.4,5.4,100,0.00,,,0.00,VWS V13.01,2013-04-27 06:58:00,
2013-04-27 01:59:00,47.3,47.3,31.01,ENE,62,7.6,7.6,100,0.00,,,0.00,VWS V13.01,2013-04-27 06:59:00,
2013-04-27 02:02:00,47.3,47.3,31.01,NE,53,5.4,5.4,100,0.00,,,0.00,VWS V13.01,2013-04-27 07:02:00,
2013-04-27 02:03:00,47.3,47.3,31.01,NE,53,5.4,5.4,100,0.00,,,0.00,VWS V13.01,2013-04-27 07:03:00,
2013-04-27 02:04:00,47.3,47.3,31.01,East,83,5.4,5.4,100,0.00,,,0.00,VWS V13.01,2013-04-27 07:04:00,
2013-04-27 02:08:00,47.3,47.3,31.01,NE,50,2.7,2.7,100,0.00,,,0.00,VWS V13.01,2013-04-27 07:08:00,
2013-04-27 02:09:00,47.3,47.3,31.01,NE,56,4.0,4.0,100,0.00,,,0.00,VWS V13.01,2013-04-27 07:09:00,
2013-04-27 02:13:00,47.3,47.3,31.01,East,79,3.1,3.1,100,0.00,,,0.00,VWS V13.01,2013-04-27 07:13:00,
2013-04-27 02:14:00,47.3,47.3,31.01,ENE,58,3.6,3.6,100,0.00,,,0.00,VWS V13.01,2013-04-27 07:14:00,
2013-04-27 02:18:00,47.5,47.5,31.01,ENE,61,3.1,3.1,100,0.04,,,0.04,VWS V13.01,2013-04-27 07:18:00,
2013-04-27 02:19:00,47.5,47.5,31.01,NE,55,3.1,3.1,100,0.04,,,0.04,VWS V13.01,2013-04-27 07:19:00,
2013-04-27 02:23:00,47.3,47.3,31.01,NE,46,8.1,8.1,100,0.04,,,0.04,VWS V13.01,2013-04-27 07:23:00,
2013-04-27 02:24:00,47.3,47.3,31.01,ENE,57,6.3,6.3,100,0.04,,,0.04,VWS V13.01,2013-04-27 07:24:00,
2013-04-27 02:28:00,47.3,47.3,31.01,ENE,68,4.5,4.5,100,0.04,,,0.04,VWS V13.01,2013-04-27 07:28:00,
2013-04-27 02:29:00,47.3,47.3,31.01,NE,51,5.4,5.4,100,0.04,,,0.04,VWS V13.01,2013-04-27 07:29:00,
2013-04-27 02:33:00,47.3,47.3,31.01,East,81,4.9,4.9,100,0.04,,,0.04,VWS V13.01,2013-04-27 07:33:00,
2013-04-27 02:34:00,47.3,47.3,31.01,ENE,74,5.8,5.8,100,0.04,,,0.04,VWS V13.01,2013-04-27 07:34:00,
2013-04-27 02:38:00,47.3,47.3,31.01,ENE,74,4.0,4.0,100,0.04,,,0.04,VWS V13.01,2013-04-27 07:38:00,
2013-04-27 02:39:00,47.3,47.3,31.01,NE,53,8.1,8.1,100,0.04,,,0.04,VWS V13.01,2013-04-27 07:39:00,
2013-04-27 02:43:00,47.3,47.3,31.01,ENE,65,5.4,5.4,100,0.04,,,0.04,VWS V13.01,2013-04-27 07:43:00,
2013-04-27 02:44:00,47.3,47.3,31.01,NE,48,6.3,6.3,100,0.04,,,0.04,VWS V13.01,2013-04-27 07:44:00,
2013-04-27 02:48:00,47.3,47.3,31.01,ENE,62,5.8,5.8,100,0.04,,,0.04,VWS V13.01,2013-04-27 07:48:00,
2013-04-27 02:49:00,47.3,47.3,31.01,NE,52,6.3,6.3,100,0.04,,,0.04,VWS V13.01,2013-04-27 07:49:00,
2013-04-27 02:53:00,47.3,47.3,31.01,ENE,62,7.6,7.6,100,0.04,,,0.04,VWS V13.01,2013-04-27 07:53:00,
2013-04-27 02:54:00,47.3,47.3,31.01,ENE,63,7.2,7.2,100,0.04,,,0.04,VWS V13.01,2013-04-27 07:54:00,
2013-04-27 02:58:00,47.3,47.3,31.01,NE,55,6.3,6.3,100,0.04,,,0.04,VWS V13.01,2013-04-27 07:58:00,
2013-04-27 02:59:00,47.3,47.3,31.01,ENE,62,6.3,6.3,100,0.04,,,0.04,VWS V13.01,2013-04-27 07:59:00,
2013-04-27 03:03:00,47.3,47.3,31.01,ENE,72,2.7,2.7,100,0.04,,,0.04,VWS V13.01,2013-04-27 08:03:00,
2013-04-27 03:04:00,47.3,47.3,31.01,NE,56,7.6,7.6,100,0.04,,,0.04,VWS V13.01,2013-04-27 08:04:00,
2013-04-27 03:08:00,47.3,47.3,31.01,ENE,61,4.9,4.9,100,0.04,,,0.04,VWS V13.01,2013-04-27 08:08:00,
2013-04-27 03:09:00,47.3,47.3,31.01,NE,54,7.6,7.6,100,0.04,,,0.04,VWS V13.01,2013-04-27 08:09:00,
2013-04-27 03:13:00,47.3,47.3,31.01,NE,40,4.9,4.9,100,0.04,,,0.04,VWS V13.01,2013-04-27 08:13:00,
2013-04-27 03:14:00,47.3,47.3,31.01,ENE,62,4.9,4.9,100,0.04,,,0.04,VWS V13.01,2013-04-27 08:14:00,
2013-04-27 03:18:00,47.3,47.3,31.01,East,80,4.0,4.0,100,0.00,,,0.04,VWS V13.01,2013-04-27 08:18:00,
2013-04-27 03:19:00,47.3,47.3,31.01,East,85,7.6,7.6,100,0.00,,,0.04,VWS V13.01,2013-04-27 08:19:00,
2013-04-27 03:23:00,47.3,47.3,31.01,ENE,78,5.8,5.8,100,0.00,,,0.04,VWS V13.01,2013-04-27 08:23:00,
2013-04-27 03:24:00,47.3,47.3,31.01,NE,53,4.9,4.9,100,0.00,,,0.04,VWS V13.01,2013-04-27 08:24:00,
2013-04-27 03:28:00,47.3,47.3,31.01,NE,54,8.3,8.3,100,0.00,,,0.04,VWS V13.01,2013-04-27 08:28:00,
2013-04-27 03:29:00,47.3,47.3,31.01,ENE,72,4.0,4.0,100,0.00,,,0.04,VWS V13.01,2013-04-27 08:29:00,
2013-04-27 03:33:00,47.3,47.3,31.01,ENE,70,4.0,4.0,100,0.00,,,0.04,VWS V13.01,2013-04-27 08:33:00,
2013-04-27 03:34:00,47.3,47.3,31.01,ENE,62,3.1,3.1,100,0.00,,,0.04,VWS V13.01,2013-04-27 08:34:00,
2013-04-27 03:38:00,47.3,47.3,31.01,East,84,4.9,4.9,100,0.00,,,0.04,VWS V13.01,2013-04-27 08:38:00,
2013-04-27 03:39:00,47.3,47.3,31.01,ENE,68,3.6,3.6,100,0.00,,,0.04,VWS V13.01,2013-04-27 08:39:00,
2013-04-27 03:43:00,47.3,47.3,31.01,ENE,74,5.8,5.8,100,0.00,,,0.04,VWS V13.01,2013-04-27 08:43:00,
2013-04-27 03:44:00,47.3,47.3,31.01,East,84,5.8,5.8,100,0.00,,,0.04,VWS V13.01,2013-04-27 08:44:00,
2013-04-27 03:45:00,47.3,47.3,31.01,East,80,6.3,6.3,100,0.00,,,0.04,VWS V13.01,2013-04-27 08:45:00,
2013-04-27 03:48:00,47.3,47.3,31.01,East,85,5.4,5.4,100,0.00,,,0.04,VWS V13.01,2013-04-27 08:48:00,
2013-04-27 03:49:00,47.3,47.3,31.01,ENE,76,5.4,5.4,100,0.00,,,0.04,VWS V13.01,2013-04-27 08:49:00,
2013-04-27 03:50:00,47.3,47.3,31.01,ENE,59,5.8,5.8,100,0.00,,,0.04,VWS V13.01,2013-04-27 08:50:00,
2013-04-27 03:53:00,47.3,47.3,31.01,ENE,73,5.8,5.8,100,0.00,,,0.04,VWS V13.01,2013-04-27 08:53:00,
2013-04-27 03:54:00,47.3,47.3,31.01,East,99,5.4,5.4,100,0.00,,,0.04,VWS V13.01,2013-04-27 08:54:00,
2013-04-27 03:55:00,47.3,47.3,31.01,East,85,6.7,6.7,100,0.00,,,0.04,VWS V13.01,2013-04-27 08:55:00,
2013-04-27 03:58:00,47.3,47.3,31.01,NE,47,5.4,5.4,100,0.00,,,0.04,VWS V13.01,2013-04-27 08:58:00,
2013-04-27 03:59:00,47.3,47.3,31.01,ENE,60,3.6,3.6,100,0.00,,,0.04,VWS V13.01,2013-04-27 08:59:00,
2013-04-27 04:00:00,47.3,47.3,31.01,ENE,69,4.0,4.0,100,0.00,,,0.04,VWS V13.01,2013-04-27 09:00:00,
2013-04-27 04:03:00,47.3,47.3,31.01,NE,47,5.8,5.8,100,0.00,,,0.04,VWS V13.01,2013-04-27 09:03:00,
2013-04-27 04:04:00,47.3,47.3,31.01,ENE,70,3.6,3.6,100,0.00,,,0.04,VWS V13.01,2013-04-27 09:04:00,
2013-04-27 04:05:00,47.3,47.3,31.01,NE,36,6.3,6.3,100,0.00,,,0.04,VWS V13.01,2013-04-27 09:05:00,
2013-04-27 04:08:00,47.3,47.3,31.01,ENE,72,3.6,3.6,100,0.00,,,0.04,VWS V13.01,2013-04-27 09:08:00,
2013-04-27 04:09:00,47.3,47.3,31.01,ENE,73,3.6,3.6,100,0.00,,,0.04,VWS V13.01,2013-04-27 09:09:00,
2013-04-27 04:10:00,47.3,47.3,31.01,ENE,69,4.0,4.0,100,0.00,,,0.04,VWS V13.01,2013-04-27 09:10:00,
2013-04-27 04:14:00,47.3,47.3,31.01,ENE,58,5.4,5.4,100,0.00,,,0.04,VWS V13.01,2013-04-27 09:14:00,
2013-04-27 04:15:00,47.3,47.3,31.01,East,82,7.2,7.2,100,0.00,,,0.04,VWS V13.01,2013-04-27 09:15:00,
2013-04-27 04:18:00,47.3,47.3,31.01,ENE,63,7.6,7.6,100,0.00,,,0.04,VWS V13.01,2013-04-27 09:18:00,
2013-04-27 04:19:00,47.3,47.3,31.01,ESE,105,7.6,7.6,100,0.00,,,0.04,VWS V13.01,2013-04-27 09:19:00,
2013-04-27 04:20:00,47.3,47.3,31.01,ENE,78,5.4,5.4,100,0.00,,,0.04,VWS V13.01,2013-04-27 09:20:00,
2013-04-27 04:24:00,47.3,47.3,31.01,ENE,66,4.0,4.0,100,0.00,,,0.04,VWS V13.01,2013-04-27 09:24:00,
2013-04-27 04:25:00,47.3,47.3,31.01,East,92,2.7,2.7,100,0.00,,,0.04,VWS V13.01,2013-04-27 09:25:00,
2013-04-27 04:29:00,47.3,47.3,31.01,NE,42,3.6,3.6,100,0.00,,,0.04,VWS V13.01,2013-04-27 09:29:00,
2013-04-27 04:30:00,47.3,47.3,31.01,ENE,67,5.4,5.4,100,0.00,,,0.04,VWS V13.01,2013-04-27 09:30:00,
2013-04-27 04:34:00,47.3,47.3,31.01,East,89,4.0,4.0,100,0.00,,,0.04,VWS V13.01,2013-04-27 09:34:00,
2013-04-27 04:35:00,47.3,47.3,31.01,ENE,78,3.6,3.6,100,0.00,,,0.04,VWS V13.01,2013-04-27 09:35:00,
2013-04-27 04:39:00,47.3,47.3,31.01,ENE,77,3.6,3.6,100,0.00,,,0.04,VWS V13.01,2013-04-27 09:39:00,
2013-04-27 04:40:00,47.3,47.3,31.01,ENE,70,2.7,2.7,100,0.00,,,0.04,VWS V13.01,2013-04-27 09:40:00,
2013-04-27 04:44:00,47.3,47.3,31.01,East,91,5.8,5.8,100,0.00,,,0.04,VWS V13.01,2013-04-27 09:44:00,
2013-04-27 04:45:00,47.3,47.3,31.01,East,91,4.9,4.9,100,0.00,,,0.04,VWS V13.01,2013-04-27 09:45:00,
2013-04-27 04:46:00,47.3,47.3,31.01,ENE,77,3.6,3.6,100,0.00,,,0.04,VWS V13.01,2013-04-27 09:46:00,
2013-04-27 04:49:00,47.3,47.3,31.01,East,91,5.8,5.8,100,0.00,,,0.04,VWS V13.01,2013-04-27 09:49:00,
2013-04-27 04:50:00,47.3,47.3,31.01,ESE,110,5.4,5.4,100,0.00,,,0.04,VWS V13.01,2013-04-27 09:50:00,
2013-04-27 04:51:00,47.3,47.3,31.01,East,85,8.1,8.1,100,0.00,,,0.04,VWS V13.01,2013-04-27 09:51:00,
2013-04-27 04:54:00,47.3,47.3,31.01,East,87,6.3,6.3,100,0.00,,,0.08,VWS V13.01,2013-04-27 09:54:00,
2013-04-27 04:55:00,47.3,47.3,31.01,East,81,5.8,5.8,100,0.04,,,0.08,VWS V13.01,2013-04-27 09:55:00,
2013-04-27 04:56:00,47.3,47.3,31.01,ENE,69,4.9,4.9,100,0.04,,,0.08,VWS V13.01,2013-04-27 09:56:00,
2013-04-27 04:59:00,47.3,47.3,31.01,East,82,6.3,6.3,100,0.04,,,0.08,VWS V13.01,2013-04-27 09:59:00,
2013-04-27 05:00:00,47.3,47.3,31.01,East,81,5.8,5.8,100,0.04,,,0.08,VWS V13.01,2013-04-27 10:00:00,
2013-04-27 05:01:00,47.3,47.3,31.01,East,79,5.4,5.4,100,0.04,,,0.08,VWS V13.01,2013-04-27 10:01:00,
2013-04-27 05:04:00,47.3,47.3,31.01,ENE,75,5.8,5.8,100,0.04,,,0.08,VWS V13.01,2013-04-27 10:04:00,
2013-04-27 05:05:00,47.3,47.3,31.01,East,88,6.3,6.3,100,0.04,,,0.08,VWS V13.01,2013-04-27 10:05:00,
2013-04-27 05:06:00,47.3,47.3,31.01,ENE,67,6.3,6.3,100,0.04,,,0.08,VWS V13.01,2013-04-27 10:06:00,
2013-04-27 05:09:00,47.3,47.3,31.01,East,86,5.8,5.8,100,0.04,,,0.08,VWS V13.01,2013-04-27 10:09:00,
2013-04-27 05:10:00,47.3,47.3,31.01,ENE,67,4.9,4.9,100,0.04,,,0.08,VWS V13.01,2013-04-27 10:10:00,
2013-04-27 05:11:00,47.3,47.3,31.01,East,98,5.4,5.4,100,0.04,,,0.08,VWS V13.01,2013-04-27 10:11:00,
2013-04-27 05:14:00,47.3,47.3,31.01,ENE,76,6.3,6.3,100,0.04,,,0.08,VWS V13.01,2013-04-27 10:14:00,
2013-04-27 05:15:00,47.3,47.3,31.01,East,85,5.8,5.8,100,0.04,,,0.08,VWS V13.01,2013-04-27 10:15:00,
2013-04-27 05:16:00,47.3,47.3,31.01,East,83,5.4,5.4,100,0.04,,,0.08,VWS V13.01,2013-04-27 10:16:00,
2013-04-27 05:20:00,47.3,47.3,31.01,ENE,68,3.6,3.6,100,0.04,,,0.08,VWS V13.01,2013-04-27 10:20:00,
2013-04-27 05:21:00,47.3,47.3,31.01,East,80,4.0,4.0,100,0.04,,,0.08,VWS V13.01,2013-04-27 10:21:00,
2013-04-27 05:25:00,47.3,47.3,31.01,East,79,4.0,4.0,100,0.04,,,0.08,VWS V13.01,2013-04-27 10:25:00,
2013-04-27 05:26:00,47.3,47.3,31.01,NE,52,4.0,4.0,100,0.04,,,0.08,VWS V13.01,2013-04-27 10:26:00,
2013-04-27 05:30:00,47.3,47.3,31.01,NNE,33,6.3,6.3,100,0.04,,,0.08,VWS V13.01,2013-04-27 10:30:00,
2013-04-27 05:31:00,47.3,47.3,31.01,ENE,69,3.6,3.6,100,0.04,,,0.08,VWS V13.01,2013-04-27 10:31:00,
2013-04-27 05:35:00,47.3,47.3,31.01,ENE,70,4.9,4.9,100,0.04,,,0.08,VWS V13.01,2013-04-27 10:35:00,
2013-04-27 05:36:00,47.3,47.3,31.01,NE,51,2.2,2.2,100,0.04,,,0.08,VWS V13.01,2013-04-27 10:36:00,
2013-04-27 05:40:00,47.3,47.3,31.01,NE,43,3.6,3.6,100,0.08,,,0.12,VWS V13.01,2013-04-27 10:40:00,
2013-04-27 05:41:00,47.3,47.3,31.01,ENE,69,5.8,5.8,100,0.08,,,0.12,VWS V13.01,2013-04-27 10:41:00,
2013-04-27 05:45:00,47.3,47.3,31.01,ENE,74,3.6,3.6,100,0.08,,,0.12,VWS V13.01,2013-04-27 10:45:00,
2013-04-27 05:47:00,47.3,47.3,31.01,East,82,5.4,5.4,100,0.08,,,0.12,VWS V13.01,2013-04-27 10:47:00,
2013-04-27 05:50:00,47.3,47.3,31.01,ENE,66,3.1,3.1,100,0.08,,,0.12,VWS V13.01,2013-04-27 10:50:00,
2013-04-27 05:51:00,47.3,47.3,31.01,ENE,66,4.0,4.0,100,0.08,,,0.12,VWS V13.01,2013-04-27 10:51:00,
2013-04-27 05:52:00,47.3,47.3,31.01,NE,50,3.1,3.1,100,0.08,,,0.12,VWS V13.01,2013-04-27 10:52:00,
2013-04-27 05:55:00,47.3,47.3,31.01,NE,50,3.1,3.1,100,0.08,,,0.12,VWS V13.01,2013-04-27 10:55:00,
2013-04-27 05:56:00,47.3,47.3,31.01,ENE,60,4.9,4.9,100,0.08,,,0.12,VWS V13.01,2013-04-27 10:56:00,
2013-04-27 05:57:00,47.3,47.3,31.01,ENE,69,5.4,5.4,100,0.04,,,0.12,VWS V13.01,2013-04-27 10:57:00,
2013-04-27 06:00:00,47.3,47.3,31.01,ENE,69,3.6,3.6,100,0.04,,,0.12,VWS V13.01,2013-04-27 11:00:00,
2013-04-27 06:01:00,47.3,47.3,31.01,ENE,62,4.9,4.9,100,0.04,,,0.12,VWS V13.01,2013-04-27 11:01:00,
2013-04-27 06:02:00,47.3,47.3,31.01,East,79,4.0,4.0,100,0.04,,,0.12,VWS V13.01,2013-04-27 11:02:00,
2013-04-27 06:05:00,47.3,47.3,31.01,ENE,74,3.6,3.6,100,0.04,,,0.12,VWS V13.01,2013-04-27 11:05:00,
2013-04-27 06:06:00,47.3,47.3,31.01,ENE,68,4.0,4.0,100,0.04,,,0.12,VWS V13.01,2013-04-27 11:06:00,
2013-04-27 06:07:00,47.3,47.3,31.01,NE,53,6.3,6.3,100,0.04,,,0.12,VWS V13.01,2013-04-27 11:07:00,
2013-04-27 06:10:00,47.3,47.3,31.01,ENE,76,2.7,2.7,100,0.04,,,0.12,VWS V13.01,2013-04-27 11:10:00,
2013-04-27 06:11:00,47.3,47.3,31.01,ENE,73,6.3,6.3,100,0.04,,,0.12,VWS V13.01,2013-04-27 11:11:00,
2013-04-27 06:12:00,47.3,47.3,31.01,East,82,3.1,3.1,100,0.04,,,0.12,VWS V13.01,2013-04-27 11:12:00,
2013-04-27 06:15:00,47.3,47.3,31.01,East,82,6.3,6.3,100,0.04,,,0.12,VWS V13.01,2013-04-27 11:15:00,
2013-04-27 06:16:00,47.3,47.3,31.01,ENE,71,4.0,4.0,100,0.04,,,0.12,VWS V13.01,2013-04-27 11:16:00,
2013-04-27 06:17:00,47.3,47.3,31.01,ENE,62,4.0,4.0,100,0.04,,,0.12,VWS V13.01,2013-04-27 11:17:00,
2013-04-27 06:20:00,47.3,47.3,31.01,ENE,69,4.9,4.9,100,0.04,,,0.12,VWS V13.01,2013-04-27 11:20:00,
2013-04-27 06:21:00,47.3,47.3,31.01,ENE,60,5.4,5.4,100,0.04,,,0.12,VWS V13.01,2013-04-27 11:21:00,
2013-04-27 06:22:00,47.3,47.3,31.01,ENE,58,4.9,4.9,100,0.04,,,0.12,VWS V13.01,2013-04-27 11:22:00,
2013-04-27 06:25:00,47.3,47.3,31.01,NE,45,3.6,3.6,100,0.04,,,0.12,VWS V13.01,2013-04-27 11:25:00,
2013-04-27 06:26:00,47.3,47.3,31.01,ENE,71,5.8,5.8,100,0.04,,,0.12,VWS V13.01,2013-04-27 11:26:00,
2013-04-27 06:27:00,47.3,47.3,31.01,NE,54,4.0,4.0,100,0.04,,,0.12,VWS V13.01,2013-04-27 11:27:00,
2013-04-27 06:30:00,47.3,47.3,31.01,NE,41,5.8,5.8,100,0.04,,,0.12,VWS V13.01,2013-04-27 11:30:00,
2013-04-27 06:31:00,47.3,47.3,31.01,ENE,63,4.9,4.9,100,0.04,,,0.12,VWS V13.01,2013-04-27 11:31:00,
2013-04-27 06:32:00,47.3,47.3,31.01,NE,55,4.0,4.0,100,0.04,,,0.12,VWS V13.01,2013-04-27 11:32:00,
2013-04-27 06:35:00,47.3,47.3,31.01,ENE,65,4.0,4.0,100,0.04,,,0.12,VWS V13.01,2013-04-27 11:35:00,
2013-04-27 06:36:00,47.3,47.3,31.01,NNE,32,4.0,4.0,100,0.04,,,0.12,VWS V13.01,2013-04-27 11:36:00,
2013-04-27 06:37:00,47.3,47.3,31.01,ENE,74,3.1,3.1,100,0.04,,,0.12,VWS V13.01,2013-04-27 11:37:00,
2013-04-27 06:41:00,47.3,47.3,31.01,NE,42,4.0,4.0,100,0.00,,,0.12,VWS V13.01,2013-04-27 11:41:00,
2013-04-27 06:42:00,47.3,47.3,31.01,ENE,57,4.0,4.0,100,0.00,,,0.12,VWS V13.01,2013-04-27 11:42:00,
2013-04-27 06:46:00,47.3,47.3,31.01,ENE,61,3.6,3.6,100,0.00,,,0.12,VWS V13.01,2013-04-27 11:46:00,
2013-04-27 06:47:00,47.3,47.3,31.01,ENE,60,4.9,4.9,100,0.00,,,0.12,VWS V13.01,2013-04-27 11:47:00,
2013-04-27 06:51:00,47.5,47.5,31.01,NE,55,5.4,5.4,100,0.00,,,0.12,VWS V13.01,2013-04-27 11:51:00,
2013-04-27 06:52:00,47.5,47.5,31.01,NE,49,5.4,5.4,100,0.00,,,0.12,VWS V13.01,2013-04-27 11:52:00,
2013-04-27 06:56:00,47.5,47.5,31.01,NE,44,2.7,2.7,100,0.00,,,0.12,VWS V13.01,2013-04-27 11:56:00,
2013-04-27 06:57:00,47.5,47.5,31.01,NE,42,3.6,3.6,100,0.00,,,0.12,VWS V13.01,2013-04-27 11:57:00,
2013-04-27 06:58:00,47.5,47.5,31.01,ENE,69,4.5,4.5,100,0.00,,,0.12,VWS V13.01,2013-04-27 11:58:00,
2013-04-27 07:01:00,47.5,47.5,31.01,NE,47,3.6,3.6,100,0.00,,,0.12,VWS V13.01,2013-04-27 12:01:00,
2013-04-27 07:02:00,47.5,47.5,31.01,ENE,78,4.0,4.0,100,0.00,,,0.12,VWS V13.01,2013-04-27 12:02:00,
2013-04-27 07:06:00,47.7,47.7,31.01,ENE,62,5.4,5.4,100,0.00,,,0.12,VWS V13.01,2013-04-27 12:06:00,
2013-04-27 07:07:00,47.7,47.7,31.01,ENE,66,5.8,5.8,100,0.00,,,0.12,VWS V13.01,2013-04-27 12:07:00,
2013-04-27 07:08:00,47.7,47.7,31.01,NE,34,4.0,4.0,100,0.00,,,0.12,VWS V13.01,2013-04-27 12:08:00,
2013-04-27 07:11:00,47.7,47.7,31.01,NE,52,3.1,3.1,100,0.00,,,0.12,VWS V13.01,2013-04-27 12:11:00,
2013-04-27 07:12:00,47.7,47.7,31.01,NE,45,5.4,5.4,100,0.00,,,0.12,VWS V13.01,2013-04-27 12:12:00,
2013-04-27 07:13:00,47.7,47.7,31.01,NE,48,5.4,5.4,100,0.00,,,0.12,VWS V13.01,2013-04-27 12:13:00,
2013-04-27 07:16:00,47.7,47.7,31.01,NE,48,2.7,2.7,100,0.00,,,0.12,VWS V13.01,2013-04-27 12:16:00,
2013-04-27 07:17:00,47.7,47.7,31.01,NE,48,0.0,0.0,100,0.00,,,0.12,VWS V13.01,2013-04-27 12:17:00,
2013-04-27 07:18:00,47.7,47.7,31.01,NE,48,4.0,4.0,100,0.00,,,0.12,VWS V13.01,2013-04-27 12:18:00,
2013-04-27 07:21:00,47.7,47.7,31.01,NE,51,5.4,5.4,100,0.00,,,0.12,VWS V13.01,2013-04-27 12:21:00,
2013-04-27 07:22:00,47.7,47.7,31.01,NE,51,3.6,3.6,100,0.00,,,0.12,VWS V13.01,2013-04-27 12:22:00,
2013-04-27 07:23:00,47.7,47.7,31.01,NE,52,5.4,5.4,100,0.00,,,0.12,VWS V13.01,2013-04-27 12:23:00,
2013-04-27 07:26:00,47.8,47.8,31.01,NNE,31,3.1,3.1,100,0.00,,,0.12,VWS V13.01,2013-04-27 12:26:00,
2013-04-27 07:27:00,47.7,47.7,31.01,NNE,31,0.0,0.0,100,0.00,,,0.12,VWS V13.01,2013-04-27 12:27:00,
2013-04-27 07:28:00,47.7,47.7,31.01,NNE,31,4.0,4.0,100,0.00,,,0.12,VWS V13.01,2013-04-27 12:28:00,
2013-04-27 07:31:00,47.8,47.8,31.01,NE,42,4.9,4.9,100,0.00,,,0.12,VWS V13.01,2013-04-27 12:31:00,
2013-04-27 07:32:00,47.8,47.8,31.01,NE,44,5.4,5.4,100,0.00,,,0.12,VWS V13.01,2013-04-27 12:32:00,
2013-04-27 07:33:00,47.8,47.8,31.01,NNE,28,3.6,3.6,100,0.00,,,0.12,VWS V13.01,2013-04-27 12:33:00,
2013-04-27 07:36:00,47.8,47.8,31.01,NE,35,4.0,4.0,100,0.00,,,0.12,VWS V13.01,2013-04-27 12:36:00,
2013-04-27 07:37:00,47.8,47.8,31.01,NE,35,4.0,4.0,100,0.00,,,0.12,VWS V13.01,2013-04-27 12:37:00,
2013-04-27 07:38:00,47.8,47.8,31.01,NE,37,2.2,2.2,100,0.00,,,0.12,VWS V13.01,2013-04-27 12:38:00,
2013-04-27 07:41:00,47.8,47.8,31.01,NE,37,0.0,0.0,100,0.00,,,0.12,VWS V13.01,2013-04-27 12:41:00,
2013-04-27 07:42:00,47.8,47.8,31.01,NE,37,2.7,2.7,100,0.00,,,0.12,VWS V13.01,2013-04-27 12:42:00,
2013-04-27 07:43:00,48.0,48.0,31.01,NE,37,0.0,0.0,100,0.00,,,0.12,VWS V13.01,2013-04-27 12:43:00,
2013-04-27 07:46:00,48.0,48.0,31.01,NE,50,5.8,5.8,100,0.00,,,0.12,VWS V13.01,2013-04-27 12:46:00,
2013-04-27 07:47:00,48.0,48.0,31.01,NE,50,3.1,3.1,100,0.00,,,0.12,VWS V13.01,2013-04-27 12:47:00,
2013-04-27 07:48:00,48.0,48.0,31.01,NNE,21,3.1,3.1,100,0.00,,,0.12,VWS V13.01,2013-04-27 12:48:00,
2013-04-27 07:52:00,48.0,48.0,31.01,NE,50,6.3,6.3,100,0.00,,,0.12,VWS V13.01,2013-04-27 12:52:00,
2013-04-27 07:53:00,48.0,48.0,31.01,NE,40,3.6,3.6,100,0.00,,,0.12,VWS V13.01,2013-04-27 12:53:00,
2013-04-27 07:57:00,48.0,48.0,31.01,NE,38,3.1,3.1,100,0.00,,,0.12,VWS V13.01,2013-04-27 12:57:00,
2013-04-27 07:58:00,48.0,48.0,31.01,ENE,64,3.1,3.1,100,0.00,,,0.12,VWS V13.01,2013-04-27 12:58:00,
2013-04-27 08:02:00,48.0,48.0,31.01,NE,50,4.9,4.9,100,0.00,,,0.12,VWS V13.01,2013-04-27 13:02:00,
2013-04-27 08:03:00,48.0,48.0,31.01,NE,44,5.8,5.8,100,0.00,,,0.12,VWS V13.01,2013-04-27 13:03:00,
2013-04-27 08:07:00,48.0,48.0,31.01,NE,53,4.9,4.9,100,0.00,,,0.12,VWS V13.01,2013-04-27 13:07:00,
2013-04-27 08:08:00,48.0,48.0,31.01,ENE,66,2.7,2.7,100,0.00,,,0.12,VWS V13.01,2013-04-27 13:08:00,
2013-04-27 08:12:00,48.2,48.2,31.01,ENE,58,3.1,3.1,100,0.00,,,0.12,VWS V13.01,2013-04-27 13:12:00,
2013-04-27 08:13:00,48.2,48.2,31.01,NNE,33,4.0,4.0,100,0.00,,,0.12,VWS V13.01,2013-04-27 13:13:00,
2013-04-27 08:17:00,48.2,48.2,31.01,NE,53,5.8,5.8,100,0.00,,,0.12,VWS V13.01,2013-04-27 13:17:00,
2013-04-27 08:18:00,48.2,48.2,31.01,NNE,28,3.6,3.6,100,0.00,,,0.12,VWS V13.01,2013-04-27 13:18:00,
2013-04-27 08:22:00,48.2,48.2,31.01,ENE,59,3.1,3.1,100,0.00,,,0.12,VWS V13.01,2013-04-27 13:22:00,
2013-04-27 08:23:00,48.2,48.2,31.01,ENE,59,2.7,2.7,100,0.00,,,0.12,VWS V13.01,2013-04-27 13:23:00,
2013-04-27 08:27:00,48.4,48.4,31.01,NE,37,5.4,5.4,100,0.00,,,0.12,VWS V13.01,2013-04-27 13:27:00,
2013-04-27 08:28:00,48.4,48.4,31.01,NE,37,3.1,3.1,100,0.00,,,0.12,VWS V13.01,2013-04-27 13:28:00,
2013-04-27 08:29:00,48.4,48.4,31.01,NE,35,5.4,5.4,100,0.00,,,0.12,VWS V13.01,2013-04-27 13:29:00,
2013-04-27 08:32:00,48.4,48.4,31.01,NE,44,3.1,3.1,100,0.00,,,0.12,VWS V13.01,2013-04-27 13:32:00,
2013-04-27 08:33:00,48.4,48.4,31.01,NE,44,2.7,2.7,100,0.00,,,0.12,VWS V13.01,2013-04-27 13:33:00,
2013-04-27 08:34:00,48.4,48.4,31.01,NE,49,5.4,5.4,100,0.00,,,0.12,VWS V13.01,2013-04-27 13:34:00,
2013-04-27 08:37:00,48.6,48.6,31.01,NE,51,5.8,5.8,100,0.00,,,0.12,VWS V13.01,2013-04-27 13:37:00,
2013-04-27 08:38:00,48.4,48.4,31.01,NE,50,6.3,6.3,100,0.00,,,0.12,VWS V13.01,2013-04-27 13:38:00,
2013-04-27 08:39:00,48.6,48.6,31.01,ENE,63,5.8,5.8,100,0.00,,,0.12,VWS V13.01,2013-04-27 13:39:00,
2013-04-27 08:42:00,48.7,48.7,31.01,ENE,61,5.4,5.4,100,0.00,,,0.12,VWS V13.01,2013-04-27 13:42:00,
2013-04-27 08:43:00,48.7,48.7,31.01,ENE,59,4.0,4.0,100,0.00,,,0.12,VWS V13.01,2013-04-27 13:43:00,
2013-04-27 08:44:00,48.7,48.7,31.01,NE,38,2.7,2.7,100,0.00,,,0.12,VWS V13.01,2013-04-27 13:44:00,
2013-04-27 08:48:00,48.7,48.7,31.01,ENE,70,3.1,3.1,100,0.00,,,0.12,VWS V13.01,2013-04-27 13:48:00,
2013-04-27 08:49:00,48.7,48.7,31.01,NE,56,6.3,6.3,100,0.00,,,0.12,VWS V13.01,2013-04-27 13:49:00,
2013-04-27 08:53:00,48.6,48.6,31.01,NE,46,5.4,5.4,100,0.00,,,0.12,VWS V13.01,2013-04-27 13:53:00,
2013-04-27 08:54:00,48.7,48.7,31.01,NE,44,5.4,5.4,100,0.00,,,0.12,VWS V13.01,2013-04-27 13:54:00,
2013-04-27 08:58:00,48.6,48.6,31.01,NE,44,5.8,5.8,100,0.00,,,0.12,VWS V13.01,2013-04-27 13:58:00,
2013-04-27 08:59:00,48.6,48.6,31.01,ENE,64,4.0,4.0,100,0.00,,,0.12,VWS V13.01,2013-04-27 13:59:00,
2013-04-27 09:03:00,48.7,48.7,31.01,SSE,149,0.0,0.0,100,0.00,,,0.12,VWS V13.01,2013-04-27 14:03:00,
2013-04-27 09:04:00,48.7,48.7,31.01,South,191,0.0,0.0,100,0.00,,,0.12,VWS V13.01,2013-04-27 14:04:00,
2013-04-27 09:08:00,48.6,48.6,31.01,NNE,29,3.1,3.1,100,0.00,,,0.12,VWS V13.01,2013-04-27 14:08:00,
2013-04-27 09:09:00,48.6,48.6,31.01,NE,36,3.6,3.6,100,0.00,,,0.12,VWS V13.01,2013-04-27 14:09:00,
2013-04-27 09:13:00,48.7,48.7,31.01,NNE,22,0.0,0.0,100,0.00,,,0.12,VWS V13.01,2013-04-27 14:13:00,
2013-04-27 09:14:00,48.7,48.7,31.01,NNE,22,0.0,0.0,100,0.00,,,0.12,VWS V13.01,2013-04-27 14:14:00,
2013-04-27 09:18:00,48.6,48.6,31.01,ENE,76,4.0,4.0,100,0.00,,,0.12,VWS V13.01,2013-04-27 14:18:00,
2013-04-27 09:19:00,48.6,48.6,31.01,NE,40,5.4,5.4,100,0.00,,,0.12,VWS V13.01,2013-04-27 14:19:00,
2013-04-27 09:23:00,48.7,48.7,31.01,ENE,58,4.0,4.0,100,0.00,,,0.12,VWS V13.01,2013-04-27 14:23:00,
2013-04-27 09:24:00,48.7,48.7,31.01,NE,51,3.6,3.6,100,0.00,,,0.12,VWS V13.01,2013-04-27 14:24:00,
2013-04-27 09:28:00,48.7,48.7,31.01,NNE,24,3.1,3.1,100,0.00,,,0.12,VWS V13.01,2013-04-27 14:28:00,
2013-04-27 09:29:00,48.9,48.9,31.01,North,353,2.7,2.7,100,0.00,,,0.12,VWS V13.01,2013-04-27 14:29:00,
2013-04-27 09:33:00,48.9,48.9,31.01,NNE,32,2.7,2.7,100,0.00,,,0.12,VWS V13.01,2013-04-27 14:33:00,
2013-04-27 09:34:00,48.9,48.9,31.01,NE,46,3.6,3.6,100,0.00,,,0.12,VWS V13.01,2013-04-27 14:34:00,
2013-04-27 09:38:00,48.9,48.9,31.01,NE,34,5.4,5.4,100,0.00,,,0.12,VWS V13.01,2013-04-27 14:38:00,
2013-04-27 09:39:00,48.9,48.9,31.01,NE,51,4.0,4.0,100,0.00,,,0.12,VWS V13.01,2013-04-27 14:39:00,
2013-04-27 09:43:00,48.9,48.9,31.01,ENE,76,4.0,4.0,100,0.00,,,0.12,VWS V13.01,2013-04-27 14:43:00,
2013-04-27 09:44:00,48.9,48.9,31.01,NE,42,4.9,4.9,100,0.00,,,0.12,VWS V13.01,2013-04-27 14:44:00,
2013-04-27 09:48:00,48.9,48.9,31.01,NE,40,3.1,3.1,100,0.00,,,0.12,VWS V13.01,2013-04-27 14:48:00,
2013-04-27 09:49:00,48.9,48.9,31.01,ENE,58,2.7,2.7,100,0.00,,,0.12,VWS V13.01,2013-04-27 14:49:00,
2013-04-27 09:53:00,49.1,49.1,31.01,NE,36,3.6,3.6,100,0.00,,,0.12,VWS V13.01,2013-04-27 14:53:00,
2013-04-27 09:54:00,48.9,48.9,31.01,NE,42,4.0,4.0,100,0.00,,,0.12,VWS V13.01,2013-04-27 14:54:00,
2013-04-27 09:58:00,48.7,48.7,31.01,ENE,60,5.4,5.4,100,0.00,,,0.12,VWS V13.01,2013-04-27 14:58:00,
2013-04-27 09:59:00,48.7,48.7,31.01,NE,51,4.0,4.0,100,0.00,,,0.12,VWS V13.01,2013-04-27 14:59:00,
2013-04-27 10:04:00,49.1,49.1,31.01,NNE,32,0.0,0.0,100,0.00,,,0.12,VWS V13.01,2013-04-27 15:04:00,
2013-04-27 10:05:00,49.3,49.3,31.01,East,91,2.7,2.7,100,0.00,,,0.12,VWS V13.01,2013-04-27 15:05:00,
2013-04-27 10:09:00,49.1,49.1,31.01,NE,44,4.0,4.0,100,0.00,,,0.12,VWS V13.01,2013-04-27 15:09:00,
2013-04-27 10:10:00,49.1,49.1,31.01,NE,50,3.1,3.1,100,0.00,,,0.12,VWS V13.01,2013-04-27 15:10:00,
2013-04-27 10:14:00,49.1,49.1,31.01,NE,49,2.7,2.7,100,0.00,,,0.12,VWS V13.01,2013-04-27 15:14:00,
2013-04-27 10:15:00,49.1,49.1,31.01,NE,36,3.6,3.6,100,0.00,,,0.12,VWS V13.01,2013-04-27 15:15:00,
2013-04-27 10:19:00,48.9,48.9,31.01,NE,56,5.8,5.8,100,0.00,,,0.12,VWS V13.01,2013-04-27 15:19:00,
2013-04-27 10:20:00,48.9,48.9,31.01,NE,37,3.1,3.1,100,0.00,,,0.12,VWS V13.01,2013-04-27 15:20:00,
2013-04-27 10:24:00,49.1,49.1,31.01,ENE,72,5.8,5.8,100,0.00,,,0.12,VWS V13.01,2013-04-27 15:24:00,
2013-04-27 10:25:00,49.1,49.1,31.01,ENE,72,4.0,4.0,100,0.00,,,0.12,VWS V13.01,2013-04-27 15:25:00,
2013-04-27 10:29:00,49.3,49.3,31.01,NE,46,3.6,3.6,100,0.00,,,0.12,VWS V13.01,2013-04-27 15:29:00,
2013-04-27 10:30:00,49.3,49.3,31.01,NE,48,3.6,3.6,100,0.00,,,0.12,VWS V13.01,2013-04-27 15:30:00,
2013-04-27 10:34:00,48.9,48.9,31.01,East,97,5.4,5.4,100,0.00,,,0.12,VWS V13.01,2013-04-27 15:34:00,
2013-04-27 10:35:00,49.1,49.1,31.01,NE,48,4.0,4.0,100,0.00,,,0.12,VWS V13.01,2013-04-27 15:35:00,
2013-04-27 10:39:00,49.1,49.1,31.01,NNE,28,3.1,3.1,100,0.00,,,0.12,VWS V13.01,2013-04-27 15:39:00,
2013-04-27 10:40:00,49.1,49.1,31.01,East,80,5.4,5.4,100,0.00,,,0.12,VWS V13.01,2013-04-27 15:40:00,
2013-04-27 10:44:00,49.1,49.1,31.01,NE,40,3.6,3.6,100,0.00,,,0.12,VWS V13.01,2013-04-27 15:44:00,
2013-04-27 10:45:00,48.9,48.9,31.01,East,87,4.0,4.0,100,0.00,,,0.12,VWS V13.01,2013-04-27 15:45:00,
2013-04-27 10:49:00,49.1,49.1,31.01,NE,49,3.6,3.6,100,0.00,,,0.12,VWS V13.01,2013-04-27 15:49:00,
2013-04-27 10:50:00,49.1,49.1,31.01,NE,49,4.0,4.0,100,0.00,,,0.12,VWS V13.01,2013-04-27 15:50:00,
2013-04-27 10:54:00,49.1,49.1,31.01,NE,54,5.8,5.8,100,0.00,,,0.12,VWS V13.01,2013-04-27 15:54:00,
2013-04-27 10:55:00,49.1,49.1,31.01,ENE,68,5.8,5.8,100,0.00,,,0.12,VWS V13.01,2013-04-27 15:55:00,
2013-04-27 10:59:00,49.1,49.1,31.01,ENE,63,4.0,4.0,100,0.00,,,0.12,VWS V13.01,2013-04-27 15:59:00,
2013-04-27 11:00:00,49.1,49.1,31.01,NE,48,3.1,3.1,100,0.00,,,0.00,VWS V13.01,2013-04-27 16:00:00,
2013-04-27 11:04:00,49.1,49.1,31.01,ENE,60,3.6,3.6,100,0.00,,,0.12,VWS V13.01,2013-04-27 16:04:00,
2013-04-27 11:05:00,49.1,49.1,31.01,NE,52,4.0,4.0,100,0.00,,,0.12,VWS V13.01,2013-04-27 16:05:00,
2013-04-27 11:09:00,49.1,49.1,31.01,ENE,62,3.6,3.6,100,0.00,,,0.12,VWS V13.01,2013-04-27 16:09:00,
2013-04-27 11:10:00,49.1,49.1,31.01,ENE,57,4.0,4.0,100,0.00,,,0.12,VWS V13.01,2013-04-27 16:10:00,
2013-04-27 11:14:00,49.3,49.3,31.01,NE,47,4.0,4.0,100,0.00,,,0.12,VWS V13.01,2013-04-27 16:14:00,
2013-04-27 11:15:00,49.3,49.3,31.01,NE,47,3.6,3.6,100,0.00,,,0.12,VWS V13.01,2013-04-27 16:15:00,
2013-04-27 11:19:00,49.3,49.3,31.01,NE,44,4.9,4.9,100,0.00,,,0.12,VWS V13.01,2013-04-27 16:19:00,
2013-04-27 11:20:00,49.3,49.3,31.01,NE,50,3.6,3.6,100,0.00,,,0.12,VWS V13.01,2013-04-27 16:20:00,
2013-04-27 11:24:00,49.1,49.1,31.01,NE,45,3.6,3.6,100,0.00,,,0.12,VWS V13.01,2013-04-27 16:24:00,
2013-04-27 11:25:00,49.3,49.3,31.01,NE,45,4.0,4.0,100,0.00,,,0.12,VWS V13.01,2013-04-27 16:25:00,
2013-04-27 11:30:00,49.5,49.5,31.01,ENE,67,2.7,2.7,100,0.00,,,0.12,VWS V13.01,2013-04-27 16:30:00,
2013-04-27 11:31:00,49.5,49.5,31.01,ENE,67,3.1,3.1,100,0.00,,,0.12,VWS V13.01,2013-04-27 16:31:00,
2013-04-27 11:35:00,50.0,50.0,31.01,NE,53,5.4,5.4,100,0.00,,,0.12,VWS V13.01,2013-04-27 16:35:00,
2013-04-27 11:36:00,49.8,49.8,31.01,NNE,27,3.1,3.1,100,0.00,,,0.12,VWS V13.01,2013-04-27 16:36:00,
2013-04-27 11:40:00,50.0,50.0,31.01,ENE,73,3.6,3.6,100,0.00,,,0.12,VWS V13.01,2013-04-27 16:40:00,
2013-04-27 11:41:00,49.8,49.8,31.01,NE,45,4.0,4.0,100,0.00,,,0.12,VWS V13.01,2013-04-27 16:41:00,
2013-04-27 11:45:00,49.8,49.8,31.01,ENE,77,3.1,3.1,100,0.00,,,0.12,VWS V13.01,2013-04-27 16:45:00,
2013-04-27 11:46:00,49.8,49.8,31.01,NNE,19,0.0,0.0,100,0.00,,,0.12,VWS V13.01,2013-04-27 16:46:00,
2013-04-27 11:50:00,50.0,50.0,31.01,ENE,59,4.0,4.0,100,0.00,,,0.12,VWS V13.01,2013-04-27 16:50:00,
2013-04-27 11:51:00,49.8,49.8,31.01,NE,54,3.6,3.6,100,0.00,,,0.12,VWS V13.01,2013-04-27 16:51:00,
2013-04-27 11:55:00,49.8,49.8,31.01,NE,53,4.0,4.0,100,0.00,,,0.12,VWS V13.01,2013-04-27 16:55:00,
2013-04-27 11:56:00,49.8,49.8,31.01,NE,45,4.0,4.0,100,0.00,,,0.12,VWS V13.01,2013-04-27 16:56:00,
2013-04-27 12:00:00,49.6,49.6,31.01,NE,55,0.0,0.0,100,0.00,,,0.12,VWS V13.01,2013-04-27 17:00:00,
2013-04-27 12:01:00,49.6,49.6,31.01,NE,55,0.0,0.0,100,0.00,,,0.12,VWS V13.01,2013-04-27 17:01:00,
2013-04-27 12:05:00,50.0,50.0,31.01,ENE,65,2.7,2.7,100,0.00,,,0.12,VWS V13.01,2013-04-27 17:05:00,
2013-04-27 12:06:00,49.8,49.8,31.01,ENE,65,0.0,0.0,100,0.00,,,0.12,VWS V13.01,2013-04-27 17:06:00,
2013-04-27 12:10:00,50.0,50.0,31.01,NE,50,3.1,3.1,100,0.00,,,0.12,VWS V13.01,2013-04-27 17:10:00,
2013-04-27 12:11:00,50.0,50.0,31.01,NE,50,4.0,4.0,100,0.00,,,0.12,VWS V13.01,2013-04-27 17:11:00,
2013-04-27 12:15:00,50.0,50.0,31.01,NE,50,3.6,3.6,100,0.00,,,0.12,VWS V13.01,2013-04-27 17:15:00,
2013-04-27 12:16:00,50.0,50.0,31.01,NE,50,3.1,3.1,100,0.00,,,0.12,VWS V13.01,2013-04-27 17:16:00,
2013-04-27 12:20:00,50.2,50.2,31.01,ENE,68,3.1,3.1,100,0.00,,,0.12,VWS V13.01,2013-04-27 17:20:00,
2013-04-27 12:21:00,50.2,50.2,31.01,ENE,68,3.6,3.6,100,0.00,,,0.12,VWS V13.01,2013-04-27 17:21:00,
2013-04-27 12:25:00,49.8,49.8,31.01,ENE,62,4.0,4.0,100,0.00,,,0.12,VWS V13.01,2013-04-27 17:25:00,
2013-04-27 12:26:00,49.8,49.8,31.01,ENE,62,2.7,2.7,100,0.00,,,0.12,VWS V13.01,2013-04-27 17:26:00,
2013-04-27 12:30:00,50.0,50.0,31.01,ENE,70,4.0,4.0,100,0.00,,,0.12,VWS V13.01,2013-04-27 17:30:00,
2013-04-27 12:31:00,50.0,50.0,31.01,ENE,76,4.0,4.0,100,0.00,,,0.12,VWS V13.01,2013-04-27 17:31:00,
2013-04-27 12:35:00,50.4,50.4,31.01,East,79,0.0,0.0,100,0.00,,,0.12,VWS V13.01,2013-04-27 17:35:00,
2013-04-27 12:36:00,50.4,50.4,31.01,East,79,0.0,0.0,100,0.00,,,0.12,VWS V13.01,2013-04-27 17:36:00,
2013-04-27 12:41:00,50.4,50.4,31.01,ENE,58,2.2,2.2,100,0.00,,,0.12,VWS V13.01,2013-04-27 17:41:00,
2013-04-27 12:46:00,50.5,50.5,31.01,NE,46,3.6,3.6,100,0.00,,,0.12,VWS V13.01,2013-04-27 17:46:00,
2013-04-27 12:51:00,50.7,50.7,31.01,NE,56,4.0,4.0,100,0.00,,,0.12,VWS V13.01,2013-04-27 17:51:00,
2013-04-27 12:56:00,51.1,51.1,31.01,NE,52,3.1,3.1,100,0.00,,,0.12,VWS V13.01,2013-04-27 17:56:00,
2013-04-27 13:01:00,51.3,51.3,31.01,NE,49,3.6,3.6,100,0.00,,,0.12,VWS V13.01,2013-04-27 18:01:00,
2013-04-27 13:06:00,51.1,51.1,31.01,NE,38,5.8,5.8,100,0.00,,,0.12,VWS V13.01,2013-04-27 18:06:00,
2013-04-27 13:07:00,50.7,50.7,31.01,NE,49,5.4,5.4,100,0.00,,,0.12,VWS V13.01,2013-04-27 18:07:00,
2013-04-27 13:11:00,50.7,50.7,31.01,ENE,68,4.0,4.0,100,0.00,,,0.12,VWS V13.01,2013-04-27 18:11:00,
2013-04-27 13:12:00,50.7,50.7,31.01,ENE,61,4.0,4.0,100,0.00,,,0.12,VWS V13.01,2013-04-27 18:12:00,
2013-04-27 13:16:00,50.9,50.9,31.01,ENE,64,5.8,5.8,100,0.00,,,0.12,VWS V13.01,2013-04-27 18:16:00,
2013-04-27 13:17:00,50.7,50.7,31.01,ENE,75,5.4,5.4,100,0.00,,,0.12,VWS V13.01,2013-04-27 18:17:00,
2013-04-27 13:21:00,50.9,50.9,31.01,ENE,59,4.0,4.0,100,0.00,,,0.12,VWS V13.01,2013-04-27 18:21:00,
2013-04-27 13:22:00,51.1,51.1,31.01,ENE,60,3.6,3.6,100,0.00,,,0.12,VWS V13.01,2013-04-27 18:22:00,
2013-04-27 13:26:00,51.1,51.1,31.01,NNE,19,3.6,3.6,100,0.00,,,0.12,VWS V13.01,2013-04-27 18:26:00,
2013-04-27 13:27:00,51.1,51.1,31.01,NNE,20,2.7,2.7,100,0.00,,,0.12,VWS V13.01,2013-04-27 18:27:00,
2013-04-27 13:31:00,50.7,50.7,31.01,NE,40,3.6,3.6,100,0.00,,,0.12,VWS V13.01,2013-04-27 18:31:00,
2013-04-27 13:32:00,50.7,50.7,31.01,NNE,24,3.1,3.1,100,0.00,,,0.12,VWS V13.01,2013-04-27 18:32:00,
2013-04-27 13:36:00,50.7,50.7,31.01,NE,43,3.1,3.1,100,0.00,,,0.12,VWS V13.01,2013-04-27 18:36:00,
2013-04-27 13:37:00,50.7,50.7,31.01,NE,43,2.7,2.7,100,0.00,,,0.12,VWS V13.01,2013-04-27 18:37:00,
2013-04-27 13:41:00,50.4,50.4,31.01,ENE,76,5.8,5.8,100,0.00,,,0.12,VWS V13.01,2013-04-27 18:41:00,
2013-04-27 13:42:00,50.4,50.4,31.01,ENE,63,4.0,4.0,100,0.00,,,0.12,VWS V13.01,2013-04-27 18:42:00,
2013-04-27 13:46:00,50.9,50.9,31.01,NE,39,4.0,4.0,100,0.00,,,0.12,VWS V13.01,2013-04-27 18:46:00,
2013-04-27 13:47:00,50.9,50.9,31.01,NNE,22,3.1,3.1,100,0.00,,,0.12,VWS V13.01,2013-04-27 18:47:00,
2013-04-27 13:51:00,51.3,51.3,31.01,NNE,15,3.1,3.1,100,0.00,,,0.12,VWS V13.01,2013-04-27 18:51:00,
2013-04-27 13:52:00,51.3,51.3,31.01,North,357,3.1,3.1,100,0.00,,,0.12,VWS V13.01,2013-04-27 18:52:00,
2013-04-27 13:56:00,50.7,50.7,31.01,ENE,58,4.9,4.9,100,0.00,,,0.12,VWS V13.01,2013-04-27 18:56:00,
2013-04-27 13:57:00,50.7,50.7,31.01,ENE,58,4.0,4.0,100,0.00,,,0.12,VWS V13.01,2013-04-27 18:57:00,
2013-04-27 14:01:00,51.1,51.1,31.01,ENE,58,3.1,3.1,100,0.00,,,0.12,VWS V13.01,2013-04-27 19:01:00,
2013-04-27 14:02:00,51.1,51.1,31.01,ENE,58,3.6,3.6,100,0.00,,,0.12,VWS V13.01,2013-04-27 19:02:00,
2013-04-27 14:03:00,51.3,51.3,31.01,North,357,3.1,3.1,100,0.00,,,0.12,VWS V13.01,2013-04-27 19:03:00,
2013-04-27 14:06:00,51.4,51.4,31.01,NNW,335,4.9,4.9,100,0.00,,,0.12,VWS V13.01,2013-04-27 19:06:00,
2013-04-27 14:07:00,51.4,51.4,31.01,NNW,335,2.2,2.2,100,0.00,,,0.12,VWS V13.01,2013-04-27 19:07:00,
2013-04-27 14:08:00,51.3,51.3,31.01,NNW,335,2.7,2.7,100,0.00,,,0.12,VWS V13.01,2013-04-27 19:08:00,
2013-04-27 14:11:00,51.3,51.3,31.01,NE,43,3.1,3.1,100,0.00,,,0.12,VWS V13.01,2013-04-27 19:11:00,
2013-04-27 14:12:00,51.3,51.3,31.01,NE,49,3.1,3.1,100,0.00,,,0.12,VWS V13.01,2013-04-27 19:12:00,
2013-04-27 14:13:00,51.4,51.4,31.01,NE,41,3.6,3.6,100,0.00,,,0.12,VWS V13.01,2013-04-27 19:13:00,
2013-04-27 14:16:00,51.8,51.8,31.01,North,0,5.4,5.4,100,0.00,,,0.12,VWS V13.01,2013-04-27 19:16:00,
2013-04-27 14:17:00,51.8,51.8,31.01,North,1,2.7,2.7,100,0.00,,,0.12,VWS V13.01,2013-04-27 19:17:00,
2013-04-27 14:18:00,52.0,52.0,31.01,NE,54,3.6,3.6,100,0.00,,,0.12,VWS V13.01,2013-04-27 19:18:00,
2013-04-27 14:21:00,52.0,52.0,31.01,NNW,346,2.2,2.2,100,0.00,,,0.12,VWS V13.01,2013-04-27 19:21:00,
2013-04-27 14:22:00,52.0,52.0,31.01,NNW,346,0.0,0.0,100,0.00,,,0.12,VWS V13.01,2013-04-27 19:22:00,
2013-04-27 14:23:00,52.0,52.0,31.01,North,0,5.4,5.4,100,0.00,,,0.12,VWS V13.01,2013-04-27 19:23:00,
2013-04-27 14:26:00,52.3,52.3,31.01,North,357,2.7,2.7,100,0.00,,,0.12,VWS V13.01,2013-04-27 19:26:00,
2013-04-27 14:27:00,52.3,52.3,31.01,NNE,31,3.6,3.6,100,0.00,,,0.12,VWS V13.01,2013-04-27 19:27:00,
2013-04-27 14:28:00,52.2,52.2,31.01,NNE,31,2.7,2.7,100,0.00,,,0.12,VWS V13.01,2013-04-27 19:28:00,
2013-04-27 14:31:00,52.3,52.3,31.01,North,11,0.0,0.0,100,0.00,,,0.12,VWS V13.01,2013-04-27 19:31:00,
2013-04-27 14:32:00,52.3,52.3,31.01,North,11,0.0,0.0,100,0.00,,,0.12,VWS V13.01,2013-04-27 19:32:00,
2013-04-27 14:33:00,52.7,52.7,31.01,North,353,3.1,3.1,100,0.00,,,0.12,VWS V13.01,2013-04-27 19:33:00,
2013-04-27 14:36:00,52.9,52.9,31.01,North,4,0.0,0.0,100,0.00,,,0.12,VWS V13.01,2013-04-27 19:36:00,
2013-04-27 14:37:00,52.9,52.9,31.01,NNE,14,0.0,0.0,100,0.00,,,0.12,VWS V13.01,2013-04-27 19:37:00,
2013-04-27 14:38:00,52.7,52.7,31.01,NNE,16,0.0,0.0,100,0.00,,,0.12,VWS V13.01,2013-04-27 19:38:00,
2013-04-27 14:41:00,52.9,52.9,31.01,NE,52,0.0,0.0,100,0.00,,,0.12,VWS V13.01,2013-04-27 19:41:00,
2013-04-27 14:42:00,52.7,52.7,31.01,NE,53,0.0,0.0,100,0.00,,,0.12,VWS V13.01,2013-04-27 19:42:00,
2013-04-27 14:43:00,52.7,52.7,31.01,NNE,30,5.4,5.4,100,0.00,,,0.12,VWS V13.01,2013-04-27 19:43:00,
2013-04-27 14:46:00,52.3,52.3,31.01,NE,38,0.0,0.0,100,0.00,,,0.12,VWS V13.01,2013-04-27 19:46:00,
2013-04-27 14:47:00,52.2,52.2,31.01,NE,38,2.2,2.2,100,0.00,,,0.12,VWS V13.01,2013-04-27 19:47:00,
2013-04-27 14:48:00,52.2,52.2,31.01,ENE,59,2.7,2.7,100,0.00,,,0.12,VWS V13.01,2013-04-27 19:48:00,
2013-04-27 14:51:00,52.2,52.2,31.01,ENE,75,3.1,3.1,100,0.00,,,0.12,VWS V13.01,2013-04-27 19:51:00,
2013-04-27 14:52:00,52.2,52.2,31.01,NE,54,4.0,4.0,100,0.00,,,0.12,VWS V13.01,2013-04-27 19:52:00,
2013-04-27 14:53:00,52.2,52.2,31.01,NE,52,2.7,2.7,100,0.00,,,0.12,VWS V13.01,2013-04-27 19:53:00,
2013-04-27 14:56:00,52.5,52.5,31.01,NE,50,4.0,4.0,100,0.00,,,0.12,VWS V13.01,2013-04-27 19:56:00,
2013-04-27 14:57:00,52.5,52.5,31.01,NNE,29,3.1,3.1,100,0.00,,,0.12,VWS V13.01,2013-04-27 19:57:00,
2013-04-27 14:58:00,52.5,52.5,31.01,NNE,29,4.0,4.0,100,0.00,,,0.12,VWS V13.01,2013-04-27 19:58:00,
2013-04-27 15:01:00,52.5,52.5,31.01,NE,49,4.0,4.0,100,0.00,,,0.12,VWS V13.01,2013-04-27 20:01:00,
2013-04-27 15:02:00,52.5,52.5,31.01,NE,51,3.1,3.1,100,0.00,,,0.12,VWS V13.01,2013-04-27 20:02:00,
2013-04-27 15:03:00,52.5,52.5,31.01,NE,43,3.6,3.6,100,0.00,,,0.12,VWS V13.01,2013-04-27 20:03:00,
2013-04-27 15:06:00,52.7,52.7,31.01,NE,44,3.6,3.6,100,0.00,,,0.12,VWS V13.01,2013-04-27 20:06:00,
2013-04-27 15:07:00,52.7,52.7,31.01,NE,35,5.4,5.4,100,0.00,,,0.12,VWS V13.01,2013-04-27 20:07:00,
2013-04-27 15:08:00,52.7,52.7,31.01,NE,35,5.4,5.4,100,0.00,,,0.12,VWS V13.01,2013-04-27 20:08:00,
2013-04-27 15:12:00,52.9,52.9,31.01,NE,44,3.1,3.1,100,0.00,,,0.12,VWS V13.01,2013-04-27 20:12:00,
2013-04-27 15:13:00,53.1,53.1,31.01,NE,44,2.2,2.2,100,0.00,,,0.12,VWS V13.01,2013-04-27 20:13:00,
2013-04-27 15:17:00,53.1,53.1,31.01,NE,41,2.7,2.7,100,0.00,,,0.12,VWS V13.01,2013-04-27 20:17:00,
2013-04-27 15:18:00,52.7,52.7,31.01,East,90,5.4,5.4,100,0.00,,,0.12,VWS V13.01,2013-04-27 20:18:00,
2013-04-27 15:19:00,52.7,52.7,31.01,NE,51,3.6,3.6,100,0.00,,,0.12,VWS V13.01,2013-04-27 20:19:00,
2013-04-27 15:22:00,52.5,52.5,31.01,NE,52,2.7,2.7,100,0.00,,,0.12,VWS V13.01,2013-04-27 20:22:00,
2013-04-27 15:23:00,52.5,52.5,31.01,NE,52,2.7,2.7,100,0.00,,,0.12,VWS V13.01,2013-04-27 20:23:00,
2013-04-27 15:24:00,52.5,52.5,31.01,NE,49,4.9,4.9,100,0.00,,,0.12,VWS V13.01,2013-04-27 20:24:00,
2013-04-27 15:27:00,52.5,52.5,31.01,NE,54,3.6,3.6,100,0.00,,,0.12,VWS V13.01,2013-04-27 20:27:00,
2013-04-27 15:28:00,52.5,52.5,31.01,NE,54,0.0,0.0,100,0.00,,,0.12,VWS V13.01,2013-04-27 20:28:00,
2013-04-27 15:29:00,52.5,52.5,31.01,NE,54,0.0,0.0,100,0.00,,,0.12,VWS V13.01,2013-04-27 20:29:00,
2013-04-27 15:32:00,52.5,52.5,31.01,NE,44,0.0,0.0,100,0.00,,,0.12,VWS V13.01,2013-04-27 20:32:00,
2013-04-27 15:33:00,52.5,52.5,31.01,NE,44,0.0,0.0,100,0.00,,,0.12,VWS V13.01,2013-04-27 20:33:00,
2013-04-27 15:34:00,52.5,52.5,31.01,North,5,4.9,4.9,100,0.00,,,0.12,VWS V13.01,2013-04-27 20:34:00,
2013-04-27 15:37:00,52.2,52.2,31.01,NNE,31,3.6,3.6,100,0.00,,,0.12,VWS V13.01,2013-04-27 20:37:00,
2013-04-27 15:38:00,51.8,51.8,31.01,NE,34,5.4,5.4,100,0.00,,,0.12,VWS V13.01,2013-04-27 20:38:00,
2013-04-27 15:39:00,51.6,51.6,31.01,NE,36,3.1,3.1,100,0.00,,,0.12,VWS V13.01,2013-04-27 20:39:00,
2013-04-27 15:42:00,51.3,51.3,31.01,NE,54,2.7,2.7,100,0.00,,,0.12,VWS V13.01,2013-04-27 20:42:00,
2013-04-27 15:43:00,51.3,51.3,31.01,NE,54,3.1,3.1,100,0.00,,,0.12,VWS V13.01,2013-04-27 20:43:00,
2013-04-27 15:44:00,51.3,51.3,31.01,NE,48,2.7,2.7,100,0.00,,,0.12,VWS V13.01,2013-04-27 20:44:00,
2013-04-27 15:47:00,51.3,51.3,31.01,NNE,13,4.0,4.0,100,0.00,,,0.12,VWS V13.01,2013-04-27 20:47:00,
2013-04-27 15:48:00,51.3,51.3,31.01,North,357,0.0,0.0,100,0.00,,,0.12,VWS V13.01,2013-04-27 20:48:00,
2013-04-27 15:49:00,51.3,51.3,31.01,NE,36,3.6,3.6,100,0.00,,,0.12,VWS V13.01,2013-04-27 20:49:00,
2013-04-27 15:52:00,51.6,51.6,31.01,ENE,63,0.0,0.0,100,0.00,,,0.12,VWS V13.01,2013-04-27 20:52:00,
2013-04-27 15:53:00,51.6,51.6,31.01,NE,51,0.0,0.0,100,0.00,,,0.12,VWS V13.01,2013-04-27 20:53:00,
2013-04-27 15:54:00,51.6,51.6,31.01,NE,50,0.0,0.0,100,0.00,,,0.12,VWS V13.01,2013-04-27 20:54:00,
2013-04-27 15:57:00,52.2,52.2,31.01,NE,49,0.0,0.0,100,0.00,,,0.12,VWS V13.01,2013-04-27 20:57:00,
2013-04-27 15:58:00,52.3,52.3,31.01,NE,51,0.0,0.0,100,0.00,,,0.12,VWS V13.01,2013-04-27 20:58:00,
2013-04-27 15:59:00,52.5,52.5,31.01,North,3,0.0,0.0,100,0.00,,,0.12,VWS V13.01,2013-04-27 20:59:00,
2013-04-27 16:02:00,52.9,52.9,31.01,NE,45,3.1,3.1,100,0.00,,,0.12,VWS V13.01,2013-04-27 21:02:00,
2013-04-27 16:03:00,52.9,52.9,31.01,NE,46,2.7,2.7,100,0.00,,,0.12,VWS V13.01,2013-04-27 21:03:00,
2013-04-27 16:04:00,52.9,52.9,31.01,North,0,3.6,3.6,100,0.00,,,0.12,VWS V13.01,2013-04-27 21:04:00,
2013-04-27 16:08:00,53.1,53.1,31.01,North,357,0.0,0.0,100,0.00,,,0.12,VWS V13.01,2013-04-27 21:08:00,
2013-04-27 16:09:00,53.2,53.2,31.01,North,0,0.0,0.0,100,0.00,,,0.12,VWS V13.01,2013-04-27 21:09:00,
2013-04-27 16:13:00,53.6,53.6,31.01,North,0,2.7,2.7,100,0.00,,,0.12,VWS V13.01,2013-04-27 21:13:00,
2013-04-27 16:14:00,53.6,53.6,31.01,North,0,0.0,0.0,100,0.00,,,0.12,VWS V13.01,2013-04-27 21:14:00,
2013-04-27 16:18:00,54.3,54.3,31.01,NNW,344,3.1,3.1,100,0.00,,,0.12,VWS V13.01,2013-04-27 21:18:00,
2013-04-27 16:19:00,54.5,54.5,31.01,North,9,0.0,0.0,100,0.00,,,0.12,VWS V13.01,2013-04-27 21:19:00,
2013-04-27 16:23:00,55.4,55.4,31.01,North,3,4.0,4.0,100,0.00,,,0.12,VWS V13.01,2013-04-27 21:23:00,
2013-04-27 16:24:00,55.4,55.4,31.01,North,9,3.6,3.6,100,0.00,,,0.12,VWS V13.01,2013-04-27 21:24:00,
2013-04-27 16:28:00,55.6,55.6,31.01,NNE,12,2.7,2.7,100,0.00,,,0.12,VWS V13.01,2013-04-27 21:28:00,
2013-04-27 16:29:00,55.6,55.6,31.01,North,0,4.9,4.9,100,0.00,,,0.12,VWS V13.01,2013-04-27 21:29:00,
2013-04-27 16:33:00,55.6,54.8,31.01,North,357,0.0,0.0,97,0.00,,,0.12,VWS V13.01,2013-04-27 21:33:00,
2013-04-27 16:34:00,55.6,54.8,31.01,North,353,0.0,0.0,97,0.00,,,0.12,VWS V13.01,2013-04-27 21:34:00,
2013-04-27 16:35:00,55.4,49.0,31.01,North,0,4.0,4.0,79,0.00,,,0.12,VWS V13.01,2013-04-27 21:35:00,
2013-04-27 16:38:00,55.0,50.6,31.01,North,353,0.0,0.0,85,0.00,,,0.12,VWS V13.01,2013-04-27 21:38:00,
2013-04-27 16:39:00,55.0,50.6,31.01,North,353,0.0,0.0,85,0.00,,,0.12,VWS V13.01,2013-04-27 21:39:00,
2013-04-27 16:40:00,55.0,50.6,31.01,North,353,0.0,0.0,85,0.00,,,0.12,VWS V13.01,2013-04-27 21:40:00,
2013-04-27 16:43:00,54.7,50.3,31.01,North,0,2.7,2.7,85,0.00,,,0.12,VWS V13.01,2013-04-27 21:43:00,
2013-04-27 16:44:00,54.9,50.4,31.01,North,349,0.0,0.0,85,0.00,,,0.12,VWS V13.01,2013-04-27 21:44:00,
2013-04-27 16:45:00,54.9,50.4,31.01,North,353,0.0,0.0,85,0.00,,,0.12,VWS V13.01,2013-04-27 21:45:00,
2013-04-27 16:48:00,55.4,54.6,31.01,North,0,0.0,0.0,97,0.00,,,0.12,VWS V13.01,2013-04-27 21:48:00,
2013-04-27 16:49:00,55.4,54.6,31.01,ENE,57,2.7,2.7,97,0.00,,,0.12,VWS V13.01,2013-04-27 21:49:00,
2013-04-27 16:50:00,55.4,54.6,31.01,NE,41,0.0,0.0,97,0.00,,,0.12,VWS V13.01,2013-04-27 21:50:00,
2013-04-27 16:53:00,55.6,54.8,31.01,North,353,0.0,0.0,97,0.00,,,0.12,VWS V13.01,2013-04-27 21:53:00,
2013-04-27 16:54:00,55.6,54.8,31.01,North,0,0.0,0.0,97,0.00,,,0.12,VWS V13.01,2013-04-27 21:54:00,
2013-04-27 16:55:00,55.6,54.8,31.01,North,0,0.0,0.0,97,0.00,,,0.12,VWS V13.01,2013-04-27 21:55:00,
2013-04-27 16:58:00,55.6,49.2,31.01,North,357,3.1,3.1,79,0.00,,,0.12,VWS V13.01,2013-04-27 21:58:00,
2013-04-27 16:59:00,55.6,49.2,31.01,NE,45,3.1,3.1,79,0.00,,,0.12,VWS V13.01,2013-04-27 21:59:00,
2013-04-27 17:00:00,55.4,49.0,31.01,NE,51,3.1,3.1,79,0.00,,,0.12,VWS V13.01,2013-04-27 22:00:00,
2013-04-27 17:03:00,54.9,50.4,31.01,NE,35,0.0,0.0,85,0.00,,,0.12,VWS V13.01,2013-04-27 22:03:00,
2013-04-27 17:04:00,54.7,50.3,31.01,NE,34,0.0,0.0,85,0.00,,,0.12,VWS V13.01,2013-04-27 22:04:00,
2013-04-27 17:05:00,54.7,50.3,31.01,North,0,0.0,0.0,85,0.00,,,0.12,VWS V13.01,2013-04-27 22:05:00,
2013-04-27 17:08:00,54.3,49.9,31.01,North,7,5.4,5.4,85,0.00,,,0.12,VWS V13.01,2013-04-27 22:08:00,
2013-04-27 17:09:00,54.5,50.1,31.01,North,2,0.0,0.0,85,0.00,,,0.12,VWS V13.01,2013-04-27 22:09:00,
2013-04-27 17:10:00,54.5,50.1,31.01,North,357,0.0,0.0,85,0.00,,,0.12,VWS V13.01,2013-04-27 22:10:00,
2013-04-27 17:13:00,54.5,50.1,31.01,NNW,348,4.9,4.9,85,0.00,,,0.12,VWS V13.01,2013-04-27 22:13:00,
2013-04-27 17:14:00,54.5,50.1,31.01,North,357,3.6,3.6,85,0.00,,,0.12,VWS V13.01,2013-04-27 22:14:00,
2013-04-27 17:15:00,54.5,50.1,31.01,North,357,2.7,2.7,85,0.00,,,0.12,VWS V13.01,2013-04-27 22:15:00,
2013-04-27 17:18:00,54.5,50.1,31.01,NNW,345,2.2,2.2,85,0.00,,,0.12,VWS V13.01,2013-04-27 22:18:00,
2013-04-27 17:19:00,54.5,50.1,31.01,North,353,0.0,0.0,85,0.00,,,0.12,VWS V13.01,2013-04-27 22:19:00,
2013-04-27 17:20:00,54.5,50.1,31.01,North,353,0.0,0.0,85,0.00,,,0.12,VWS V13.01,2013-04-27 22:20:00,
2013-04-27 17:23:00,54.5,50.1,31.01,North,357,0.0,0.0,85,0.00,,,0.12,VWS V13.01,2013-04-27 22:23:00,
2013-04-27 17:25:00,54.5,50.1,31.01,North,357,0.0,0.0,85,0.00,,,0.12,VWS V13.01,2013-04-27 22:25:00,
2013-04-27 17:29:00,54.1,49.7,31.01,NE,50,0.0,0.0,85,0.00,,,0.12,VWS V13.01,2013-04-27 22:29:00,
2013-04-27 17:30:00,54.0,49.6,31.01,NE,48,0.0,0.0,85,0.00,,,0.12,VWS V13.01,2013-04-27 22:30:00,
2013-04-27 17:34:00,53.8,53.0,31.01,North,357,0.0,0.0,97,0.00,,,0.12,VWS V13.01,2013-04-27 22:34:00,
2013-04-27 17:35:00,54.0,53.1,31.01,North,357,0.0,0.0,97,0.00,,,0.12,VWS V13.01,2013-04-27 22:35:00,
2013-04-27 17:39:00,54.5,54.5,31.01,NE,49,0.0,0.0,100,0.00,,,0.12,VWS V13.01,2013-04-27 22:39:00,
2013-04-27 17:40:00,54.5,53.7,31.01,North,357,3.6,3.6,97,0.00,,,0.12,VWS V13.01,2013-04-27 22:40:00,
2013-04-27 17:44:00,54.3,53.5,31.01,North,1,0.0,0.0,97,0.00,,,0.12,VWS V13.01,2013-04-27 22:44:00,
2013-04-27 17:45:00,54.3,53.5,31.01,NNE,32,2.7,2.7,97,0.00,,,0.12,VWS V13.01,2013-04-27 22:45:00,
2013-04-27 17:46:00,54.3,49.9,31.01,North,353,0.0,0.0,85,0.00,,,0.12,VWS V13.01,2013-04-27 22:46:00,
2013-04-27 17:49:00,54.3,53.5,31.01,NE,43,0.0,0.0,97,0.00,,,0.12,VWS V13.01,2013-04-27 22:49:00,
2013-04-27 17:50:00,54.1,53.3,31.01,NNE,14,0.0,0.0,97,0.00,,,0.12,VWS V13.01,2013-04-27 22:50:00,
2013-04-27 17:51:00,54.0,49.6,31.01,North,3,2.7,2.7,85,0.00,,,0.12,VWS V13.01,2013-04-27 22:51:00,
2013-04-27 17:54:00,53.8,49.4,31.01,North,0,0.0,0.0,85,0.00,,,0.12,VWS V13.01,2013-04-27 22:54:00,
2013-04-27 17:55:00,53.8,49.4,31.01,North,0,0.0,0.0,85,0.00,,,0.12,VWS V13.01,2013-04-27 22:55:00,
2013-04-27 17:56:00,53.8,49.4,31.01,NNE,18,0.0,0.0,85,0.00,,,0.12,VWS V13.01,2013-04-27 22:56:00,
2013-04-27 17:59:00,53.8,49.4,31.01,North,353,0.0,0.0,85,0.00,,,0.12,VWS V13.01,2013-04-27 22:59:00,
2013-04-27 18:00:00,53.8,53.0,31.01,NNW,342,0.0,0.0,97,0.00,,,0.12,VWS V13.01,2013-04-27 23:00:00,
2013-04-27 18:01:00,53.6,52.8,31.01,NNW,345,0.0,0.0,97,0.00,,,0.12,VWS V13.01,2013-04-27 23:01:00,
2013-04-27 18:04:00,53.2,48.8,31.01,North,357,3.1,3.1,85,0.00,,,0.12,VWS V13.01,2013-04-27 23:04:00,
2013-04-27 18:05:00,53.2,48.8,31.01,North,353,2.7,2.7,85,0.00,,,0.12,VWS V13.01,2013-04-27 23:05:00,
2013-04-27 18:06:00,53.2,53.2,31.01,North,353,2.7,2.7,100,0.00,,,0.12,VWS V13.01,2013-04-27 23:06:00,
2013-04-27 18:09:00,53.2,53.2,31.01,North,0,0.0,0.0,100,0.00,,,0.12,VWS V13.01,2013-04-27 23:09:00,
2013-04-27 18:11:00,53.1,53.1,31.01,NE,37,0.0,0.0,100,0.00,,,0.12,VWS V13.01,2013-04-27 23:11:00,
2013-04-27 18:14:00,52.9,52.9,31.01,NW,318,0.0,0.0,100,0.00,,,0.12,VWS V13.01,2013-04-27 23:14:00,
2013-04-27 18:16:00,52.9,52.9,31.01,NW,318,0.0,0.0,100,0.00,,,0.12,VWS V13.01,2013-04-27 23:16:00,
2013-04-27 18:17:00,52.9,52.9,31.01,NW,318,0.0,0.0,100,0.00,,,0.12,VWS V13.01,2013-04-27 23:17:00,
2013-04-27 18:20:00,53.1,53.1,31.01,NW,319,0.0,0.0,100,0.00,,,0.12,VWS V13.01,2013-04-27 23:20:00,
2013-04-27 18:21:00,53.2,53.2,31.01,NW,319,0.0,0.0,100,0.00,,,0.12,VWS V13.01,2013-04-27 23:21:00,
2013-04-27 18:22:00,53.2,53.2,31.01,NW,319,0.0,0.0,100,0.00,,,0.12,VWS V13.01,2013-04-27 23:22:00,
2013-04-27 18:25:00,53.6,53.6,31.01,North,349,0.0,0.0,100,0.00,,,0.12,VWS V13.01,2013-04-27 23:25:00,
2013-04-27 18:26:00,53.6,53.6,31.01,North,357,2.2,2.2,100,0.00,,,0.12,VWS V13.01,2013-04-27 23:26:00,
2013-04-27 18:27:00,53.6,52.8,31.01,North,357,0.0,0.0,97,0.00,,,0.12,VWS V13.01,2013-04-27 23:27:00,
2013-04-27 18:28:00,53.6,52.8,31.01,North,357,0.0,0.0,97,0.00,,,0.12,VWS V13.01,2013-04-27 23:28:00,
2013-04-27 18:30:00,53.4,53.4,31.01,North,0,0.0,0.0,100,0.00,,,0.12,VWS V13.01,2013-04-27 23:30:00,
2013-04-27 18:31:00,53.6,52.8,31.01,North,0,0.0,0.0,97,0.00,,,0.12,VWS V13.01,2013-04-27 23:31:00,
2013-04-27 18:32:00,53.6,52.8,31.01,North,0,0.0,0.0,97,0.00,,,0.12,VWS V13.01,2013-04-27 23:32:00,
2013-04-27 18:33:00,53.6,52.8,31.01,North,0,0.0,0.0,97,0.00,,,0.12,VWS V13.01,2013-04-27 23:33:00,
2013-04-27 18:35:00,53.6,52.8,31.01,NNW,343,0.0,0.0,97,0.00,,,0.12,VWS V13.01,2013-04-27 23:35:00,
2013-04-27 18:36:00,53.6,52.8,31.01,North,0,0.0,0.0,97,0.00,,,0.12,VWS V13.01,2013-04-27 23:36:00,
2013-04-27 18:37:00,53.6,52.8,31.01,North,0,0.0,0.0,97,0.00,,,0.12,VWS V13.01,2013-04-27 23:37:00,
2013-04-27 18:38:00,53.6,52.8,31.01,North,0,0.0,0.0,97,0.00,,,0.12,VWS V13.01,2013-04-27 23:38:00,
2013-04-27 18:40:00,53.6,52.8,31.01,North,0,0.0,0.0,97,0.00,,,0.12,VWS V13.01,2013-04-27 23:40:00,
2013-04-27 18:41:00,53.4,53.4,31.01,North,0,0.0,0.0,100,0.00,,,0.12,VWS V13.01,2013-04-27 23:41:00,
2013-04-27 18:42:00,53.4,53.4,31.01,North,0,0.0,0.0,100,0.00,,,0.12,VWS V13.01,2013-04-27 23:42:00,
2013-04-27 18:43:00,53.4,53.4,31.01,NNW,343,0.0,0.0,100,0.00,,,0.12,VWS V13.01,2013-04-27 23:43:00,
2013-04-27 18:45:00,53.2,53.2,31.01,NW,323,0.0,0.0,100,0.00,,,0.12,VWS V13.01,2013-04-27 23:45:00,
2013-04-27 18:46:00,53.2,53.2,31.01,NW,322,0.0,0.0,100,0.00,,,0.12,VWS V13.01,2013-04-27 23:46:00,
2013-04-27 18:47:00,53.2,53.2,31.01,NW,322,0.0,0.0,100,0.00,,,0.12,VWS V13.01,2013-04-27 23:47:00,
2013-04-27 18:49:00,53.1,53.1,31.01,NW,322,0.0,0.0,100,0.00,,,0.12,VWS V13.01,2013-04-27 23:49:00,
2013-04-27 18:50:00,53.1,53.1,31.01,NW,322,0.0,0.0,100,0.00,,,0.12,VWS V13.01,2013-04-27 23:50:00,
2013-04-27 18:51:00,53.1,53.1,31.01,North,353,0.0,0.0,100,0.00,,,0.12,VWS V13.01,2013-04-27 23:51:00,
2013-04-27 18:52:00,53.1,53.1,31.01,North,357,0.0,0.0,100,0.00,,,0.12,VWS V13.01,2013-04-27 23:52:00,
2013-04-27 18:54:00,53.1,53.1,31.01,North,0,0.0,0.0,100,0.00,,,0.12,VWS V13.01,2013-04-27 23:54:00,
2013-04-27 18:55:00,53.1,53.1,31.01,North,357,0.0,0.0,100,0.00,,,0.12,VWS V13.01,2013-04-27 23:55:00,
2013-04-27 18:56:00,53.1,53.1,31.01,North,0,0.0,0.0,100,0.00,,,0.12,VWS V13.01,2013-04-27 23:56:00,
2013-04-27 18:57:00,53.1,53.1,31.01,North,0,0.0,0.0,100,0.00,,,0.12,VWS V13.01,2013-04-27 23:57:00,
2013-04-27 18:59:00,53.1,53.1,31.01,North,0,0.0,0.0,100,0.00,,,0.12,VWS V13.01,2013-04-27 23:59:00,
2013-04-27 19:00:00,53.2,53.2,31.01,North,0,0.0,0.0,100,0.00,,,0.12,VWS V13.01,2013-04-28 00:00:00,
2013-04-27 19:01:00,53.2,53.2,31.01,North,0,0.0,0.0,100,0.00,,,0.12,VWS V13.01,2013-04-28 00:01:00,
2013-04-27 19:02:00,53.1,53.1,31.01,North,0,0.0,0.0,100,0.00,,,0.12,VWS V13.01,2013-04-28 00:02:00,
2013-04-27 19:04:00,53.1,53.1,31.01,North,0,0.0,0.0,100,0.00,,,0.12,VWS V13.01,2013-04-28 00:04:00,
2013-04-27 19:06:00,53.2,53.2,31.01,North,0,0.0,0.0,100,0.00,,,0.12,VWS V13.01,2013-04-28 00:06:00,
2013-04-27 19:07:00,53.2,53.2,31.01,North,353,0.0,0.0,100,0.00,,,0.12,VWS V13.01,2013-04-28 00:07:00,
2013-04-27 19:09:00,53.1,53.1,31.01,North,2,0.0,0.0,100,0.00,,,0.12,VWS V13.01,2013-04-28 00:09:00,
2013-04-27 19:11:00,53.1,53.1,31.01,North,2,0.0,0.0,100,0.00,,,0.12,VWS V13.01,2013-04-28 00:11:00,
2013-04-27 19:12:00,53.1,53.1,31.01,North,2,0.0,0.0,100,0.00,,,0.12,VWS V13.01,2013-04-28 00:12:00,
2013-04-27 19:15:00,53.1,53.1,31.01,North,0,0.0,0.0,100,0.00,,,0.12,VWS V13.01,2013-04-28 00:15:00,
2013-04-27 19:16:00,53.1,53.1,31.01,North,353,0.0,0.0,100,0.00,,,0.12,VWS V13.01,2013-04-28 00:16:00,
2013-04-27 19:17:00,53.1,53.1,31.01,NNW,343,0.0,0.0,100,0.00,,,0.12,VWS V13.01,2013-04-28 00:17:00,
2013-04-27 19:20:00,52.9,52.9,31.01,NNW,343,0.0,0.0,100,0.00,,,0.12,VWS V13.01,2013-04-28 00:20:00,
2013-04-27 19:21:00,52.9,52.9,31.01,North,353,0.0,0.0,100,0.00,,,0.12,VWS V13.01,2013-04-28 00:21:00,
2013-04-27 19:22:00,52.9,52.9,31.01,North,353,0.0,0.0,100,0.00,,,0.12,VWS V13.01,2013-04-28 00:22:00,
2013-04-27 19:23:00,52.9,52.9,31.01,North,353,0.0,0.0,100,0.00,,,0.12,VWS V13.01,2013-04-28 00:23:00,
2013-04-27 19:25:00,52.9,52.9,31.01,North,353,0.0,0.0,100,0.00,,,0.12,VWS V13.01,2013-04-28 00:25:00,
2013-04-27 19:26:00,52.9,52.9,31.01,North,353,0.0,0.0,100,0.00,,,0.12,VWS V13.01,2013-04-28 00:26:00,
2013-04-27 19:27:00,52.9,52.9,31.01,North,353,0.0,0.0,100,0.00,,,0.12,VWS V13.01,2013-04-28 00:27:00,
2013-04-27 19:28:00,52.9,52.9,31.01,North,353,0.0,0.0,100,0.00,,,0.12,VWS V13.01,2013-04-28 00:28:00,
2013-04-27 19:31:00,52.9,52.9,31.01,North,0,0.0,0.0,100,0.00,,,0.12,VWS V13.01,2013-04-28 00:31:00,
2013-04-27 19:32:00,52.7,52.7,31.01,North,0,0.0,0.0,100,0.00,,,0.12,VWS V13.01,2013-04-28 00:32:00,
2013-04-27 19:33:00,52.7,52.7,31.01,North,0,0.0,0.0,100,0.00,,,0.12,VWS V13.01,2013-04-28 00:33:00,
2013-04-27 19:36:00,52.7,52.7,31.01,North,0,0.0,0.0,100,0.00,,,0.12,VWS V13.01,2013-04-28 00:36:00,
2013-04-27 19:37:00,52.7,52.7,31.01,North,0,0.0,0.0,100,0.00,,,0.12,VWS V13.01,2013-04-28 00:37:00,
2013-04-27 19:38:00,52.7,52.7,31.01,North,0,0.0,0.0,100,0.00,,,0.12,VWS V13.01,2013-04-28 00:38:00,
2013-04-27 19:41:00,52.5,52.5,31.01,North,0,0.0,0.0,100,0.00,,,0.12,VWS V13.01,2013-04-28 00:41:00,
2013-04-27 19:42:00,52.5,52.5,31.01,North,0,0.0,0.0,100,0.00,,,0.12,VWS V13.01,2013-04-28 00:42:00,
2013-04-27 19:43:00,52.5,52.5,31.01,North,0,0.0,0.0,100,0.00,,,0.12,VWS V13.01,2013-04-28 00:43:00,
2013-04-27 19:46:00,52.5,52.5,31.01,North,0,0.0,0.0,100,0.00,,,0.12,VWS V13.01,2013-04-28 00:46:00,
2013-04-27 19:47:00,52.5,52.5,31.01,North,0,0.0,0.0,100,0.00,,,0.12,VWS V13.01,2013-04-28 00:47:00,
2013-04-27 19:48:00,52.5,52.5,31.01,North,0,0.0,0.0,100,0.00,,,0.12,VWS V13.01,2013-04-28 00:48:00,
2013-04-27 19:51:00,52.3,52.3,31.01,North,0,0.0,0.0,100,0.00,,,0.12,VWS V13.01,2013-04-28 00:51:00,
2013-04-27 19:52:00,52.3,52.3,31.01,North,0,0.0,0.0,100,0.00,,,0.12,VWS V13.01,2013-04-28 00:52:00,
2013-04-27 19:53:00,52.5,52.5,31.01,North,0,0.0,0.0,100,0.00,,,0.12,VWS V13.01,2013-04-28 00:53:00,
2013-04-27 19:56:00,52.3,52.3,31.01,North,0,0.0,0.0,100,0.00,,,0.12,VWS V13.01,2013-04-28 00:56:00,
2013-04-27 19:57:00,52.3,52.3,31.01,North,0,0.0,0.0,100,0.00,,,0.12,VWS V13.01,2013-04-28 00:57:00,
2013-04-27 19:58:00,52.3,52.3,31.01,North,0,0.0,0.0,100,0.00,,,0.12,VWS V13.01,2013-04-28 00:58:00,
2013-04-27 20:01:00,52.2,52.2,31.01,North,0,0.0,0.0,100,0.00,,,0.12,VWS V13.01,2013-04-28 01:01:00,
2013-04-27 20:02:00,52.2,52.2,31.01,North,0,0.0,0.0,100,0.00,,,0.12,VWS V13.01,2013-04-28 01:02:00,
2013-04-27 20:03:00,52.2,52.2,31.01,North,0,0.0,0.0,100,0.00,,,0.12,VWS V13.01,2013-04-28 01:03:00,
2013-04-27 20:07:00,52.2,52.2,31.01,North,0,0.0,0.0,100,0.00,,,0.12,VWS V13.01,2013-04-28 01:07:00,
2013-04-27 20:08:00,52.2,52.2,31.01,North,0,0.0,0.0,100,0.00,,,0.12,VWS V13.01,2013-04-28 01:08:00,
2013-04-27 20:12:00,52.2,52.2,31.01,North,0,0.0,0.0,100,0.00,,,0.12,VWS V13.01,2013-04-28 01:12:00,
2013-04-27 20:13:00,52.2,52.2,31.01,North,0,0.0,0.0,100,0.00,,,0.12,VWS V13.01,2013-04-28 01:13:00,
2013-04-27 20:17:00,52.2,52.2,31.01,North,0,0.0,0.0,100,0.00,,,0.12,VWS V13.01,2013-04-28 01:17:00,
2013-04-27 20:18:00,52.2,52.2,31.01,North,0,0.0,0.0,100,0.00,,,0.12,VWS V13.01,2013-04-28 01:18:00,
2013-04-27 20:19:00,52.2,52.2,31.01,North,0,0.0,0.0,100,0.00,,,0.12,VWS V13.01,2013-04-28 01:19:00,
2013-04-27 20:22:00,52.0,52.0,31.01,North,0,0.0,0.0,100,0.00,,,0.12,VWS V13.01,2013-04-28 01:22:00,
2013-04-27 20:23:00,52.2,52.2,31.01,North,0,0.0,0.0,100,0.00,,,0.12,VWS V13.01,2013-04-28 01:23:00,
2013-04-27 20:24:00,52.2,52.2,31.01,North,0,0.0,0.0,100,0.00,,,0.12,VWS V13.01,2013-04-28 01:24:00,
2013-04-27 20:27:00,52.2,52.2,31.01,North,0,0.0,0.0,100,0.00,,,0.12,VWS V13.01,2013-04-28 01:27:00,
2013-04-27 20:28:00,52.2,52.2,31.01,North,0,0.0,0.0,100,0.00,,,0.12,VWS V13.01,2013-04-28 01:28:00,
2013-04-27 20:29:00,52.2,52.2,31.01,North,0,0.0,0.0,100,0.00,,,0.12,VWS V13.01,2013-04-28 01:29:00,
2013-04-27 20:32:00,52.0,52.0,31.01,North,0,0.0,0.0,100,0.00,,,0.12,VWS V13.01,2013-04-28 01:32:00,
2013-04-27 20:34:00,52.0,52.0,31.01,North,0,0.0,0.0,100,0.00,,,0.12,VWS V13.01,2013-04-28 01:34:00,
2013-04-27 20:37:00,51.8,51.8,31.01,North,0,0.0,0.0,100,0.00,,,0.12,VWS V13.01,2013-04-28 01:37:00,
2013-04-27 20:39:00,51.8,51.8,31.01,North,0,0.0,0.0,100,0.00,,,0.12,VWS V13.01,2013-04-28 01:39:00,
2013-04-27 20:42:00,51.8,51.8,31.01,North,0,0.0,0.0,100,0.00,,,0.12,VWS V13.01,2013-04-28 01:42:00,
2013-04-27 20:44:00,51.8,51.8,31.01,North,0,0.0,0.0,100,0.00,,,0.12,VWS V13.01,2013-04-28 01:44:00,
2013-04-27 20:47:00,51.8,51.8,31.01,North,0,0.0,0.0,100,0.00,,,0.12,VWS V13.01,2013-04-28 01:47:00,
2013-04-27 20:48:00,51.8,51.8,31.01,North,0,0.0,0.0,100,0.00,,,0.12,VWS V13.01,2013-04-28 01:48:00,
2013-04-27 20:49:00,51.8,51.8,31.01,North,0,0.0,0.0,100,0.00,,,0.12,VWS V13.01,2013-04-28 01:49:00,
2013-04-27 20:53:00,51.8,51.8,31.01,North,0,0.0,0.0,100,0.00,,,0.12,VWS V13.01,2013-04-28 01:53:00,
2013-04-27 20:54:00,51.8,51.8,31.01,North,0,0.0,0.0,100,0.00,,,0.12,VWS V13.01,2013-04-28 01:54:00,
2013-04-27 20:55:00,51.8,51.8,31.01,North,0,0.0,0.0,100,0.00,,,0.12,VWS V13.01,2013-04-28 01:55:00,
2013-04-27 20:58:00,51.8,51.8,31.01,North,0,0.0,0.0,100,0.00,,,0.12,VWS V13.01,2013-04-28 01:58:00,
2013-04-27 20:59:00,51.8,51.8,31.01,North,0,0.0,0.0,100,0.00,,,0.12,VWS V13.01,2013-04-28 01:59:00,
2013-04-27 21:00:00,51.8,51.8,31.01,North,0,0.0,0.0,100,0.00,,,0.12,VWS V13.01,2013-04-28 02:00:00,
2013-04-27 21:03:00,51.6,51.6,31.01,North,0,0.0,0.0,100,0.00,,,0.12,VWS V13.01,2013-04-28 02:03:00,
2013-04-27 21:04:00,51.6,51.6,31.01,North,0,0.0,0.0,100,0.00,,,0.12,VWS V13.01,2013-04-28 02:04:00,
2013-04-27 21:05:00,51.6,51.6,31.01,North,0,0.0,0.0,100,0.00,,,0.12,VWS V13.01,2013-04-28 02:05:00,
2013-04-27 21:08:00,51.6,51.6,31.01,North,0,0.0,0.0,100,0.00,,,0.12,VWS V13.01,2013-04-28 02:08:00,
2013-04-27 21:09:00,51.6,51.6,31.01,North,0,0.0,0.0,100,0.00,,,0.12,VWS V13.01,2013-04-28 02:09:00,
2013-04-27 21:10:00,51.6,51.6,31.01,North,0,0.0,0.0,100,0.00,,,0.12,VWS V13.01,2013-04-28 02:10:00,
2013-04-27 21:13:00,51.3,51.3,31.01,North,0,0.0,0.0,100,0.00,,,0.12,VWS V13.01,2013-04-28 02:13:00,
2013-04-27 21:14:00,51.3,51.3,31.01,North,0,0.0,0.0,100,0.00,,,0.12,VWS V13.01,2013-04-28 02:14:00,
2013-04-27 21:15:00,51.1,51.1,31.01,North,0,0.0,0.0,100,0.00,,,0.12,VWS V13.01,2013-04-28 02:15:00,
2013-04-27 21:18:00,51.1,51.1,31.01,North,0,0.0,0.0,100,0.00,,,0.12,VWS V13.01,2013-04-28 02:18:00,
2013-04-27 21:19:00,51.1,51.1,31.01,North,0,0.0,0.0,100,0.00,,,0.12,VWS V13.01,2013-04-28 02:19:00,
2013-04-27 21:20:00,51.1,51.1,31.01,North,0,0.0,0.0,100,0.00,,,0.12,VWS V13.01,2013-04-28 02:20:00,
2013-04-27 21:23:00,51.1,51.1,31.01,North,0,0.0,0.0,100,0.00,,,0.12,VWS V13.01,2013-04-28 02:23:00,
2013-04-27 21:24:00,51.1,51.1,31.01,North,0,0.0,0.0,100,0.00,,,0.12,VWS V13.01,2013-04-28 02:24:00,
2013-04-27 21:25:00,51.3,51.3,31.01,North,0,0.0,0.0,100,0.00,,,0.12,VWS V13.01,2013-04-28 02:25:00,
2013-04-27 21:28:00,51.3,51.3,31.01,North,0,0.0,0.0,100,0.00,,,0.12,VWS V13.01,2013-04-28 02:28:00,
2013-04-27 21:29:00,51.3,51.3,31.01,North,0,0.0,0.0,100,0.00,,,0.12,VWS V13.01,2013-04-28 02:29:00,
2013-04-27 21:30:00,51.3,51.3,31.01,North,0,0.0,0.0,100,0.00,,,0.12,VWS V13.01,2013-04-28 02:30:00,
2013-04-27 21:33:00,51.3,51.3,31.01,North,0,0.0,0.0,100,0.00,,,0.12,VWS V13.01,2013-04-28 02:33:00,
2013-04-27 21:34:00,51.3,51.3,31.01,North,0,0.0,0.0,100,0.00,,,0.12,VWS V13.01,2013-04-28 02:34:00,
2013-04-27 21:35:00,51.3,51.3,31.01,North,0,0.0,0.0,100,0.00,,,0.12,VWS V13.01,2013-04-28 02:35:00,
2013-04-27 21:38:00,51.3,51.3,31.01,North,0,0.0,0.0,100,0.00,,,0.12,VWS V13.01,2013-04-28 02:38:00,
2013-04-27 21:39:00,51.3,51.3,31.01,North,0,0.0,0.0,100,0.00,,,0.12,VWS V13.01,2013-04-28 02:39:00,
2013-04-27 21:40:00,51.3,51.3,31.01,North,0,0.0,0.0,100,0.00,,,0.12,VWS V13.01,2013-04-28 02:40:00,
2013-04-27 21:41:00,51.3,51.3,31.01,North,0,0.0,0.0,100,0.00,,,0.12,VWS V13.01,2013-04-28 02:41:00,
2013-04-27 21:44:00,51.3,51.3,31.01,North,0,0.0,0.0,100,0.00,,,0.12,VWS V13.01,2013-04-28 02:44:00,
2013-04-27 21:45:00,51.3,51.3,31.01,North,0,0.0,0.0,100,0.00,,,0.12,VWS V13.01,2013-04-28 02:45:00,
2013-04-27 21:46:00,51.3,51.3,31.01,North,0,0.0,0.0,100,0.00,,,0.12,VWS V13.01,2013-04-28 02:46:00,
2013-04-27 21:49:00,51.3,51.3,31.01,North,0,0.0,0.0,100,0.00,,,0.12,VWS V13.01,2013-04-28 02:49:00,
2013-04-27 21:50:00,51.1,51.1,31.01,North,0,0.0,0.0,100,0.00,,,0.12,VWS V13.01,2013-04-28 02:50:00,
2013-04-27 21:51:00,51.1,51.1,31.01,North,0,0.0,0.0,100,0.00,,,0.12,VWS V13.01,2013-04-28 02:51:00,
2013-04-27 21:54:00,51.1,51.1,31.01,North,0,0.0,0.0,100,0.00,,,0.12,VWS V13.01,2013-04-28 02:54:00,
2013-04-27 21:55:00,51.1,51.1,31.01,North,0,0.0,0.0,100,0.00,,,0.12,VWS V13.01,2013-04-28 02:55:00,
2013-04-27 21:56:00,51.1,51.1,31.01,North,0,0.0,0.0,100,0.00,,,0.12,VWS V13.01,2013-04-28 02:56:00,
2013-04-27 21:59:00,51.1,51.1,31.01,North,0,0.0,0.0,100,0.00,,,0.12,VWS V13.01,2013-04-28 02:59:00,
2013-04-27 22:00:00,51.1,51.1,31.01,North,0,0.0,0.0,100,0.00,,,0.12,VWS V13.01,2013-04-28 03:00:00,
2013-04-27 22:01:00,51.1,51.1,31.01,North,0,0.0,0.0,100,0.00,,,0.12,VWS V13.01,2013-04-28 03:01:00,
2013-04-27 22:04:00,51.1,51.1,31.01,North,0,0.0,0.0,100,0.00,,,0.12,VWS V13.01,2013-04-28 03:04:00,
2013-04-27 22:05:00,51.1,51.1,31.01,North,0,0.0,0.0,100,0.00,,,0.12,VWS V13.01,2013-04-28 03:05:00,
2013-04-27 22:06:00,51.1,51.1,31.01,North,0,0.0,0.0,100,0.00,,,0.12,VWS V13.01,2013-04-28 03:06:00,
2013-04-27 22:09:00,51.1,51.1,31.01,North,0,0.0,0.0,100,0.00,,,0.12,VWS V13.01,2013-04-28 03:09:00,
2013-04-27 22:10:00,51.1,51.1,31.01,North,0,0.0,0.0,100,0.00,,,0.12,VWS V13.01,2013-04-28 03:10:00,
2013-04-27 22:11:00,51.1,51.1,31.01,North,0,0.0,0.0,100,0.00,,,0.12,VWS V13.01,2013-04-28 03:11:00,
2013-04-27 22:14:00,51.3,51.3,31.01,North,0,0.0,0.0,100,0.00,,,0.12,VWS V13.01,2013-04-28 03:14:00,
2013-04-27 22:15:00,51.3,51.3,31.01,North,0,0.0,0.0,100,0.00,,,0.12,VWS V13.01,2013-04-28 03:15:00,
2013-04-27 22:16:00,51.3,51.3,31.01,North,0,0.0,0.0,100,0.00,,,0.12,VWS V13.01,2013-04-28 03:16:00,
2013-04-27 22:20:00,51.3,51.3,31.01,North,0,0.0,0.0,100,0.00,,,0.12,VWS V13.01,2013-04-28 03:20:00,
2013-04-27 22:21:00,51.3,51.3,31.01,North,0,0.0,0.0,100,0.00,,,0.12,VWS V13.01,2013-04-28 03:21:00,
2013-04-27 22:22:00,51.3,51.3,31.01,North,0,0.0,0.0,100,0.00,,,0.12,VWS V13.01,2013-04-28 03:22:00,
2013-04-27 22:25:00,51.3,51.3,31.01,North,0,0.0,0.0,100,0.00,,,0.12,VWS V13.01,2013-04-28 03:25:00,
2013-04-27 22:26:00,51.3,51.3,31.01,North,0,0.0,0.0,100,0.00,,,0.12,VWS V13.01,2013-04-28 03:26:00,
2013-04-27 22:27:00,51.1,51.1,31.01,North,0,0.0,0.0,100,0.00,,,0.12,VWS V13.01,2013-04-28 03:27:00,
2013-04-27 22:30:00,51.1,51.1,31.01,North,0,0.0,0.0,100,0.00,,,0.12,VWS V13.01,2013-04-28 03:30:00,
2013-04-27 22:31:00,51.1,51.1,31.01,North,0,0.0,0.0,100,0.00,,,0.12,VWS V13.01,2013-04-28 03:31:00,
2013-04-27 22:32:00,51.1,51.1,31.01,North,0,0.0,0.0,100,0.00,,,0.12,VWS V13.01,2013-04-28 03:32:00,
2013-04-27 22:35:00,51.1,51.1,31.01,North,0,0.0,0.0,100,0.00,,,0.12,VWS V13.01,2013-04-28 03:35:00,
2013-04-27 22:36:00,51.1,51.1,31.01,North,0,0.0,0.0,100,0.00,,,0.12,VWS V13.01,2013-04-28 03:36:00,
2013-04-27 22:37:00,51.1,51.1,31.01,North,0,0.0,0.0,100,0.00,,,0.12,VWS V13.01,2013-04-28 03:37:00,
2013-04-27 22:40:00,51.1,51.1,31.01,North,0,0.0,0.0,100,0.00,,,0.12,VWS V13.01,2013-04-28 03:40:00,
2013-04-27 22:41:00,51.1,51.1,31.01,North,0,0.0,0.0,100,0.00,,,0.12,VWS V13.01,2013-04-28 03:41:00,
2013-04-27 22:42:00,51.1,51.1,31.01,North,0,0.0,0.0,100,0.00,,,0.12,VWS V13.01,2013-04-28 03:42:00,
2013-04-27 22:45:00,51.1,51.1,31.01,North,0,0.0,0.0,100,0.00,,,0.12,VWS V13.01,2013-04-28 03:45:00,
2013-04-27 22:46:00,50.9,50.9,31.01,North,0,0.0,0.0,100,0.00,,,0.12,VWS V13.01,2013-04-28 03:46:00,
2013-04-27 22:47:00,50.9,50.9,31.01,North,0,0.0,0.0,100,0.00,,,0.12,VWS V13.01,2013-04-28 03:47:00,
2013-04-27 22:50:00,50.9,50.9,31.01,North,0,0.0,0.0,100,0.00,,,0.12,VWS V13.01,2013-04-28 03:50:00,
2013-04-27 22:51:00,50.9,50.9,31.01,North,0,0.0,0.0,100,0.00,,,0.12,VWS V13.01,2013-04-28 03:51:00,
2013-04-27 22:52:00,50.9,50.9,31.01,North,0,0.0,0.0,100,0.00,,,0.12,VWS V13.01,2013-04-28 03:52:00,
2013-04-27 22:55:00,50.9,50.9,31.01,North,0,0.0,0.0,100,0.00,,,0.12,VWS V13.01,2013-04-28 03:55:00,
2013-04-27 22:56:00,50.9,50.9,31.01,North,0,0.0,0.0,100,0.00,,,0.12,VWS V13.01,2013-04-28 03:56:00,
2013-04-27 22:57:00,50.9,50.9,31.01,North,0,0.0,0.0,100,0.00,,,0.12,VWS V13.01,2013-04-28 03:57:00,
2013-04-27 23:00:00,50.9,50.9,31.01,North,0,0.0,0.0,100,0.00,,,0.12,VWS V13.01,2013-04-28 04:00:00,
2013-04-27 23:01:00,50.9,50.9,31.01,North,0,0.0,0.0,100,0.00,,,0.12,VWS V13.01,2013-04-28 04:01:00,
2013-04-27 23:06:00,50.9,50.9,31.01,North,0,0.0,0.0,100,0.00,,,0.12,VWS V13.01,2013-04-28 04:06:00,
2013-04-27 23:11:00,50.7,50.7,31.01,North,0,0.0,0.0,100,0.00,,,0.12,VWS V13.01,2013-04-28 04:11:00,
2013-04-27 23:16:00,50.7,50.7,31.01,North,0,0.0,0.0,100,0.00,,,0.12,VWS V13.01,2013-04-28 04:16:00,
2013-04-27 23:21:00,50.5,50.5,31.01,North,0,0.0,0.0,100,0.00,,,0.12,VWS V13.01,2013-04-28 04:21:00,
2013-04-27 23:26:00,50.5,50.5,31.01,North,0,0.0,0.0,100,0.00,,,0.12,VWS V13.01,2013-04-28 04:26:00,
2013-04-27 23:31:00,50.5,50.5,31.01,North,0,0.0,0.0,100,0.00,,,0.12,VWS V13.01,2013-04-28 04:31:00,
2013-04-27 23:36:00,50.7,50.7,31.01,North,0,0.0,0.0,100,0.00,,,0.12,VWS V13.01,2013-04-28 04:36:00,
2013-04-27 23:37:00,50.7,50.7,31.01,North,0,0.0,0.0,100,0.00,,,0.12,VWS V13.01,2013-04-28 04:37:00,
2013-04-27 23:41:00,50.7,50.7,31.01,North,0,0.0,0.0,100,0.00,,,0.12,VWS V13.01,2013-04-28 04:41:00,
2013-04-27 23:42:00,50.7,50.7,31.01,North,0,0.0,0.0,100,0.00,,,0.12,VWS V13.01,2013-04-28 04:42:00,
2013-04-27 23:46:00,50.5,50.5,31.01,North,0,0.0,0.0,100,0.00,,,0.12,VWS V13.01,2013-04-28 04:46:00,
2013-04-27 23:47:00,50.5,50.5,31.01,North,0,0.0,0.0,100,0.00,,,0.12,VWS V13.01,2013-04-28 04:47:00,
2013-04-27 23:51:00,50.7,50.7,31.01,North,0,0.0,0.0,100,0.00,,,0.12,VWS V13.01,2013-04-28 04:51:00,
2013-04-27 23:52:00,50.7,50.7,31.01,North,0,0.0,0.0,100,0.00,,,0.12,VWS V13.01,2013-04-28 04:52:00,
2013-04-27 23:53:00,50.7,50.7,31.01,North,0,0.0,0.0,100,0.00,,,0.12,VWS V13.01,2013-04-28 04:53:00,
2013-04-27 23:56:00,50.7,50.7,31.01,North,0,0.0,0.0,100,0.00,,,0.12,VWS V13.01,2013-04-28 04:56:00,
2013-04-27 23:57:00,50.7,50.7,31.01,North,0,0.0,0.0,100,0.00,,,0.12,VWS V13.01,2013-04-28 04:57:00,
2013-04-27 23:58:00,50.7,50.7,31.01,North,0,0.0,0.0,100,0.00,,,0.12,VWS V13.01,2013-04-28 04:58:00,